GFSMA_850_thetae_075.txt.gz
Theta_e
327 327 323 319 316 315 316 316 316 316 319 324 325 324 324 326 327 326 323 322 319 315 312 311 309 307 305 305 304 303 303 303 303 303 303 303 303 303 302 302 302 301 301
330 329 326 323 324 322 322 321 323 325 327 326 326 325 325 325 324 324 322 321 319 315 313 311 310 308 305 305 304 303 304 303 303 303 303 304 305 304 304 303 302 301 301
332 330 327 326 328 326 325 325 326 327 329 329 327 326 324 324 324 322 322 322 320 317 314 312 310 309 306 305 305 304 304 304 304 304 305 306 306 305 304 304 303 302 301
332 330 327 327 329 329 329 326 326 327 328 329 328 327 326 323 322 321 322 322 321 319 315 313 311 310 307 306 305 305 305 305 304 305 305 306 306 306 306 305 304 303 302
330 330 328 328 330 331 331 329 327 326 327 328 327 326 325 323 321 320 321 323 322 320 317 313 312 311 307 306 304 304 305 305 304 304 305 304 305 305 305 305 305 304 304
333 331 330 328 328 328 330 331 330 327 326 327 328 326 325 323 321 320 319 322 322 321 319 316 312 311 309 306 304 303 304 303 303 302 303 303 303 304 304 303 303 303 303
334 333 333 332 331 331 330 330 331 331 329 327 327 327 324 322 321 320 320 320 321 322 321 319 314 311 309 307 304 303 302 302 302 301 301 301 301 300 301 301 300 300 302
334 334 333 332 331 332 332 331 331 331 331 329 327 326 323 322 321 321 320 321 321 320 321 320 318 312 309 308 306 303 302 301 301 301 300 300 300 299 299 299 300 300 303
332 333 334 334 333 333 332 332 331 331 329 330 329 327 322 322 322 322 322 321 321 320 318 318 315 313 310 307 305 304 303 301 300 300 300 300 299 299 298 298 300 303 304
330 330 331 332 333 333 333 332 331 329 328 328 329 328 326 324 322 322 322 322 320 318 316 313 313 311 310 307 306 304 301 300 300 299 299 299 299 298 297 298 301 304 304
329 327 325 325 329 332 331 331 331 331 329 329 329 329 327 326 324 322 321 322 320 319 316 311 310 310 309 307 305 302 301 300 299 299 298 297 297 297 297 297 302 302 302
331 329 326 331 332 330 330 330 329 330 329 329 329 329 328 326 325 322 320 320 318 315 315 310 308 307 306 305 304 303 300 298 297 298 298 299 298 299 297 299 301 300 301
329 329 329 328 328 328 326 327 329 327 326 327 327 329 327 327 327 325 322 318 317 316 314 309 307 307 305 303 307 300 305 306 305 305 300 300 298 299 300 302 302 300 296
328 327 327 328 329 327 326 325 324 324 324 324 324 325 325 326 325 325 323 321 317 314 312 309 306 306 304 305 306 305 304 304 304 306 301 298 298 300 302 301 295 292 292
325 326 327 327 327 324 325 319 322 321 322 322 322 322 323 323 324 324 322 318 318 314 313 312 308 305 307 306 307 305 304 302 301 301 299 299 299 299 293 292 291 291 292
318 320 320 321 323 322 318 314 313 314 314 319 318 318 318 320 321 320 319 318 315 312 310 310 309 306 305 306 303 302 302 300 300 300 300 299 294 291 291 289 290 290 290
312 313 313 312 311 311 310 311 311 311 311 313 314 314 314 315 315 316 316 315 311 309 308 308 306 306 305 305 303 301 301 299 300 299 296 292 289 288 289 289 290 291 291
310 310 310 310 310 310 310 310 310 311 310 311 311 312 312 312 313 312 311 310 308 306 305 305 304 303 302 301 301 300 299 297 291 288 288 288 288 287 287 289 290 290 290
310 310 310 310 309 310 310 310 310 310 311 311 311 311 310 309 307 305 304 302 302 302 302 301 301 300 300 299 295 290 289 288 288 289 288 287 287 288 288 289 290 290 289
309 309 309 309 309 309 308 309 309 310 309 310 309 308 306 304 303 300 300 300 300 300 300 300 298 296 293 289 289 289 288 288 288 286 287 288 289 289 289 289 288 288 288
309 309 308 307 307 308 306 307 306 306 306 305 304 303 302 301 300 299 299 298 298 298 298 293 289 288 288 288 288 288 288 287 286 288 289 289 289 289 289 289 289 289 289
306 306 306 304 303 303 302 300 300 300 300 300 299 299 300 299 299 298 298 298 298 290 287 287 287 286 287 287 288 287 286 285 287 288 290 290 289 290 289 289 289 289 288
304 302 301 300 300 299 298 298 298 299 299 298 298 298 298 297 297 295 289 286 285 286 286 286 286 286 286 286 286 285 285 287 287 287 288 290 289 290 290 290 289 289 289
301 299 299 300 300 298 298 298 297 298 298 298 296 293 290 288 286 286 286 286 287 287 286 286 285 285 284 284 284 286 287 287 288 287 287 289 289 290 290 290 289 289 288
299 298 298 298 298 297 295 292 289 289 288 288 287 287 286 286 286 285 285 285 285 285 285 285 283 284 285 286 286 286 287 287 288 288 288 288 288 289 290 290 289 289 288
298 296 291 290 289 289 288 288 288 288 287 287 286 285 284 284 284 284 283 283 284 284 284 283 285 286 286 286 286 287 287 287 287 288 287 287 287 285 287 289 290 290 289

GFSMA_850_thetae_081.txt.gz
Theta_e
321 320 319 319 318 317 316 317 319 319 317 315 318 319 319 321 324 325 326 325 325 323 322 320 315 312 310 307 305 304 304 303 303 303 303 303 303 302 303 303 303 303 303
324 323 325 324 322 319 316 315 316 317 316 315 318 321 323 323 323 324 324 324 324 323 322 321 318 315 311 309 306 304 303 304 303 303 303 303 303 303 303 303 303 303 303
329 328 327 326 325 323 323 322 321 320 321 321 321 323 324 324 323 323 324 324 324 323 322 321 319 317 314 311 308 305 303 303 302 302 303 303 303 303 303 303 302 303 303
331 330 329 328 327 325 326 325 325 325 324 324 324 325 326 327 326 325 324 324 323 322 321 321 320 319 316 314 311 309 305 303 302 301 302 302 303 303 302 303 302 302 303
332 331 330 329 329 328 326 327 328 329 329 327 326 326 326 327 327 326 325 325 324 322 320 320 321 320 318 316 313 315 313 306 302 300 300 300 300 302 302 302 302 302 304
333 332 331 330 330 329 328 328 328 329 330 330 330 328 327 327 327 327 326 326 325 323 321 319 319 320 319 317 315 315 315 314 309 301 300 299 299 299 299 299 302 304 307
335 334 332 331 331 330 330 329 329 329 329 330 331 330 329 328 327 327 327 327 326 325 322 320 319 318 319 318 316 314 315 314 313 307 302 300 299 299 300 302 305 306 307
334 334 333 333 333 333 332 331 330 329 329 330 331 330 329 328 327 327 326 326 326 325 323 321 319 318 318 316 316 314 312 313 314 311 306 304 305 304 304 305 306 306 307
334 334 334 334 334 334 334 333 332 331 331 331 331 330 326 326 326 326 326 325 325 324 322 320 318 316 315 315 315 314 312 310 310 310 306 305 303 303 304 305 305 306 307
332 333 332 332 333 334 334 334 332 332 331 330 329 329 328 326 326 326 326 325 325 324 323 323 322 320 316 315 314 314 312 315 312 314 311 306 305 303 302 302 303 303 305
333 334 333 331 328 329 330 329 330 332 329 328 328 327 328 328 328 327 323 325 325 324 323 322 322 321 318 319 314 314 312 312 309 307 306 306 307 304 305 304 304 304 306
325 326 328 328 329 329 327 325 327 327 327 328 329 327 327 326 327 326 326 324 323 322 321 321 321 320 320 317 315 311 311 309 308 306 307 306 305 304 304 303 304 304 304
320 321 323 328 325 327 326 324 325 326 325 323 323 324 323 324 323 324 325 323 322 322 320 319 318 319 318 316 313 312 312 309 306 306 304 303 303 302 303 303 302 302 302
316 316 318 324 328 327 326 325 325 324 324 323 322 322 321 321 320 320 320 320 319 317 317 316 316 316 316 315 312 310 308 308 306 302 300 301 301 302 302 301 301 301 300
313 316 322 328 328 328 326 324 323 322 322 322 320 316 318 318 318 319 319 317 316 316 315 314 314 314 313 312 310 308 305 300 303 300 300 300 299 300 300 299 299 298 298
313 316 321 324 326 326 324 324 322 321 319 319 313 314 315 317 315 316 313 314 313 314 313 312 312 311 310 308 306 305 302 301 300 299 300 299 299 298 299 299 296 294 293
312 314 316 319 320 321 321 321 321 319 315 311 311 311 311 310 311 310 310 311 311 311 312 311 310 308 307 305 303 301 300 300 301 300 299 299 298 299 298 292 291 290 290
311 312 312 313 313 312 311 310 309 309 310 310 310 310 310 309 310 310 310 310 310 310 310 309 308 307 305 303 302 301 301 299 300 300 300 298 295 289 289 288 288 288 290
310 310 310 310 310 309 309 309 309 309 309 310 309 309 309 309 309 309 307 306 306 307 306 305 304 303 302 301 300 299 298 298 297 293 289 289 289 288 287 287 288 289 290
309 309 309 309 309 309 309 309 309 309 309 309 309 308 307 307 306 304 304 303 303 303 303 302 302 301 300 298 298 297 292 290 289 289 288 288 287 288 289 289 290 289 289
308 308 308 308 308 308 308 308 308 308 308 308 306 305 304 303 301 301 301 301 300 301 300 300 300 299 297 292 289 289 288 288 288 287 287 288 289 289 290 290 289 290 290
307 307 307 306 306 306 307 306 304 305 305 303 302 302 302 301 300 299 299 299 298 298 298 297 294 289 288 288 287 287 287 287 286 287 288 289 288 289 289 289 289 290 290
305 304 304 303 303 302 301 302 302 302 301 300 300 300 299 299 297 296 294 291 289 288 287 287 287 287 286 286 286 286 285 285 286 287 288 290 289 289 289 289 289 290 289
303 302 302 302 301 301 301 300 299 296 293 292 291 290 289 288 288 287 287 287 287 287 286 286 286 286 286 285 285 284 284 286 287 288 288 289 290 290 290 289 290 290 289
301 301 301 300 299 295 290 290 289 289 289 289 288 288 287 287 286 286 285 285 285 285 285 285 285 284 284 284 286 286 287 287 287 288 288 288 289 289 290 290 290 289 289
300 299 296 292 290 290 289 289 288 288 288 287 287 287 286 285 285 284 284 284 284 284 284 284 284 284 285 286 286 286 286 286 286 287 288 288 288 288 288 289 289 288 288

GFSMA_850_thetae_087.txt.gz
Theta_e
318 315 317 317 316 317 318 318 318 320 321 320 316 315 317 318 320 320 323 324 324 324 323 323 322 321 321 320 315 311 307 305 303 303 303 302 303 303 303 303 304 304 304
327 325 317 317 318 319 318 318 316 316 318 319 317 315 318 320 322 323 323 323 323 323 323 323 322 321 320 320 320 316 312 306 304 303 302 302 302 302 302 303 303 303 304
328 328 322 323 325 325 320 321 318 318 319 319 320 318 319 321 323 325 325 325 325 324 324 323 322 321 319 319 319 319 318 312 307 303 302 301 301 301 301 301 302 302 303
329 329 327 326 326 327 324 323 324 323 324 324 324 324 325 325 325 325 325 326 326 326 325 325 324 322 319 318 318 321 320 319 315 311 303 302 301 300 300 300 301 302 303
331 331 331 330 329 328 328 326 326 326 327 327 328 328 328 328 328 328 327 327 327 327 326 326 325 323 321 318 318 319 320 319 318 317 314 304 301 301 300 301 303 304 305
333 332 332 331 331 330 329 329 328 328 328 328 328 328 328 329 329 329 329 328 327 327 327 326 326 324 322 319 318 317 318 319 319 318 316 315 311 308 305 301 303 308 309
334 333 334 332 331 331 330 330 330 330 330 329 329 329 329 329 329 327 326 325 326 326 325 325 325 324 323 321 319 317 317 318 319 319 317 315 315 316 314 308 305 302 302
334 334 334 334 333 333 332 331 331 331 331 331 330 330 329 328 327 327 325 325 325 325 324 325 324 323 322 320 318 317 317 317 318 319 314 316 315 315 314 314 311 310 307
333 334 333 333 333 333 333 333 333 333 332 332 331 330 329 328 327 327 326 325 326 326 325 324 325 323 322 322 320 317 316 317 317 317 317 316 315 314 312 311 310 309 308
335 335 335 334 333 334 333 333 332 331 332 332 331 329 328 329 328 326 325 325 325 324 323 324 323 322 321 321 320 319 317 316 318 318 317 315 313 312 310 309 308 307 307
334 333 332 332 331 331 330 329 329 329 329 331 331 329 328 327 328 326 324 324 322 322 322 321 320 320 318 320 319 318 317 316 314 315 315 315 313 312 310 309 307 307 308
331 329 328 328 329 329 329 331 330 327 327 329 328 326 326 324 325 324 323 322 320 320 319 319 317 317 315 315 315 316 316 316 314 314 313 313 313 311 309 307 308 308 307
319 320 323 326 326 325 325 327 328 327 326 326 325 324 323 322 321 322 321 321 321 318 317 316 316 316 314 313 313 313 313 314 313 311 311 311 310 309 308 307 306 305 306
315 316 318 319 320 321 323 326 329 326 327 326 326 325 323 321 322 320 320 319 318 316 315 314 314 314 312 311 312 311 311 312 311 309 309 308 308 308 306 305 304 303 302
313 314 314 315 316 316 317 327 329 327 324 325 324 322 321 321 320 319 317 316 314 314 312 313 312 311 311 310 310 310 310 310 310 309 307 306 305 305 304 303 302 302 302
311 311 311 312 313 317 322 325 329 325 325 323 321 321 321 318 317 313 314 314 315 313 312 311 310 310 309 309 309 309 308 306 306 304 303 303 303 302 301 301 301 301 301
312 312 312 313 319 322 323 322 324 322 320 321 321 320 315 314 311 311 311 310 310 309 309 309 308 308 308 308 308 307 305 304 304 304 302 301 301 300 299 299 300 300 300
312 312 312 313 315 317 319 320 320 320 321 320 319 315 310 309 309 309 309 309 309 309 309 308 306 305 305 305 305 304 303 303 302 302 302 301 300 300 300 299 294 290 289
310 311 311 311 311 312 313 313 313 313 311 310 309 309 309 309 309 309 308 308 306 306 307 306 305 304 304 303 303 302 302 302 302 301 300 299 294 290 289 289 288 288 288
308 308 309 309 309 309 309 309 309 309 309 309 309 309 309 308 308 307 306 305 305 304 304 303 302 302 302 302 301 300 300 299 298 295 292 290 289 288 288 287 288 289 290
308 308 308 308 308 308 308 308 308 308 308 308 308 308 307 306 306 304 303 304 303 303 302 301 300 299 299 298 296 294 291 290 289 288 288 288 287 287 288 288 290 290 290
307 307 307 307 307 307 308 308 307 307 307 307 306 305 304 304 302 301 302 302 301 298 297 296 295 293 291 289 288 288 287 287 287 287 287 287 288 289 289 289 290 290 290
305 305 306 306 306 306 306 306 306 305 304 304 303 303 302 301 299 294 291 290 289 289 289 288 288 288 287 287 287 287 286 286 285 285 287 288 289 289 289 290 290 290 290
304 304 304 303 303 302 302 302 302 302 302 301 298 294 291 290 290 289 289 288 288 287 287 287 286 286 286 286 286 285 285 285 286 287 288 289 289 289 289 290 290 290 290
302 302 301 301 300 300 299 300 298 294 291 290 290 289 289 289 288 288 288 287 287 286 286 286 285 285 285 285 285 286 287 287 287 288 288 289 289 290 290 290 290 289 290
298 299 300 299 299 296 290 289 290 289 289 289 289 288 288 288 287 287 287 286 286 285 285 285 285 285 285 285 286 287 287 287 287 287 288 288 289 289 289 289 289 289 288

GFSMA_850_thetae_090.txt.gz
Theta_e
316 321 329 330 330 330 330 326 322 325 324 323 320 315 316 317 319 321 323 323 323 323 324 323 322 321 320 320 320 318 313 308 305 304 304 303 303 303 303 304 305 306 309
320 318 318 319 319 316 319 320 321 317 319 320 320 317 316 318 321 322 324 324 324 323 323 323 324 322 321 319 319 320 319 314 309 305 303 303 303 303 303 303 303 304 305
327 327 323 318 319 322 323 320 320 317 317 318 319 320 319 320 322 324 325 325 326 325 325 324 324 324 323 320 319 320 320 320 318 312 307 303 303 303 303 304 304 303 304
328 328 328 322 324 326 325 322 323 323 323 323 324 324 325 325 325 326 326 326 326 327 326 326 325 325 324 322 321 321 321 320 320 319 317 308 302 302 302 303 304 305 304
330 329 330 329 327 327 327 327 325 325 326 326 327 328 328 328 328 329 329 329 328 327 327 327 326 326 324 322 320 320 321 321 320 319 319 318 313 310 312 312 312 306 303
333 332 331 331 331 330 329 329 328 328 327 327 328 328 328 328 328 328 328 326 325 325 326 326 326 325 325 323 321 319 319 321 321 320 319 318 317 316 317 316 313 311 303
333 333 333 332 331 331 330 330 330 330 329 329 329 329 329 329 329 329 327 326 325 324 325 325 325 325 324 323 321 319 318 318 320 321 320 319 318 316 315 315 313 311 311
335 334 334 334 334 333 332 331 331 331 330 331 331 331 331 331 330 328 327 325 325 325 325 325 325 324 324 322 321 320 318 318 319 321 320 318 318 317 316 314 313 311 310
334 335 334 334 334 334 333 333 333 332 332 332 332 331 330 329 329 327 327 327 325 326 325 324 324 324 324 322 321 321 320 317 317 318 319 319 318 317 315 314 312 311 309
335 335 335 335 334 334 333 333 333 332 332 332 331 332 331 330 328 328 326 324 323 324 324 322 323 322 321 321 320 320 319 318 317 317 319 318 317 315 314 313 312 311 309
334 333 333 333 334 333 333 333 332 331 330 330 331 330 331 328 327 327 326 323 323 323 322 321 321 320 318 317 315 316 317 317 317 317 317 317 318 315 314 312 311 310 309
330 333 333 331 329 330 329 329 330 330 331 331 329 330 330 328 325 324 324 324 322 320 319 318 318 318 317 317 314 313 313 315 316 315 316 315 316 316 313 311 310 309 309
321 322 323 323 325 328 328 330 330 330 330 329 328 327 326 325 323 322 321 321 321 319 318 317 316 314 315 314 312 312 313 312 313 313 313 313 313 313 311 310 308 307 307
315 315 316 317 318 319 322 325 326 328 329 329 327 327 326 325 323 322 321 321 320 317 317 315 315 314 313 313 311 311 311 311 311 311 311 311 311 310 310 309 308 306 306
312 312 313 315 317 318 319 321 323 328 330 329 327 325 325 323 322 321 321 321 319 317 315 313 312 313 312 310 310 309 310 309 310 310 309 309 309 308 307 308 306 305 304
311 311 311 312 312 313 313 314 316 323 327 327 326 325 322 321 321 320 318 315 314 314 314 312 311 311 310 309 309 309 308 308 308 307 306 305 305 305 305 305 304 303 302
311 311 311 311 311 312 316 321 322 323 324 323 326 323 321 320 319 315 313 311 311 311 310 309 308 308 308 308 308 307 307 306 305 305 305 304 304 304 303 303 303 302 301
312 312 312 312 313 314 318 320 321 322 322 322 320 320 319 318 313 310 309 309 309 309 309 308 307 307 306 306 306 305 305 305 304 305 304 304 303 303 302 301 301 298 292
311 311 311 311 312 313 315 317 317 318 319 319 319 318 315 310 309 309 309 308 308 307 307 307 307 306 306 305 304 304 304 303 302 302 301 301 300 299 294 291 289 289 288
309 309 309 310 310 310 311 311 312 313 312 311 310 309 309 308 308 308 307 307 306 306 305 305 304 304 303 302 302 302 301 301 299 298 295 292 289 289 288 288 287 288 289
308 308 308 308 308 308 308 308 308 308 308 308 308 308 308 307 307 306 306 305 305 304 303 303 302 301 300 300 299 298 295 293 290 289 289 288 288 287 288 289 289 290 290
307 307 307 307 307 307 307 307 307 307 308 307 307 307 306 306 306 305 305 304 303 302 300 299 297 296 294 292 290 289 288 288 288 288 287 287 287 288 289 290 290 290 290
305 306 306 306 306 306 307 307 306 307 307 306 305 305 304 304 303 302 297 293 291 290 290 289 289 288 288 288 288 287 287 286 286 286 287 288 289 289 290 290 290 290 290
303 303 305 305 305 305 304 305 305 304 304 303 303 302 301 296 292 290 289 289 289 289 288 288 288 287 287 287 286 286 286 286 286 288 288 289 289 289 290 290 290 290 290
302 302 303 303 302 301 301 301 302 302 301 300 296 291 290 290 289 288 288 288 288 288 287 287 287 287 286 286 286 286 288 288 288 288 289 289 289 289 290 290 290 290 289
300 299 299 299 299 299 299 299 299 294 291 290 290 289 289 289 288 288 288 287 287 287 287 287 287 286 286 286 287 288 287 288 288 288 289 289 289 289 289 289 289 289 289

GFSMA_850_thetae_093.txt.gz
Theta_e
331 330 333 335 335 335 335 334 333 333 332 331 327 320 319 322 325 324 326 324 323 323 323 325 324 322 321 320 320 320 320 315 310 306 304 304 304 304 304 305 305 306 306
331 333 334 334 334 334 333 332 331 330 330 330 330 326 320 320 320 323 325 326 325 325 324 323 325 325 324 322 320 319 320 321 318 312 307 304 303 303 303 304 304 305 305
329 329 331 332 331 331 330 330 330 325 327 326 326 327 324 324 326 326 326 327 327 326 326 325 325 325 326 325 323 322 321 321 320 320 320 313 306 304 303 303 303 303 304
331 329 329 327 328 329 328 329 329 329 327 328 328 329 326 325 326 328 329 327 327 327 327 327 326 326 325 325 324 324 323 322 321 320 320 319 318 308 307 310 309 310 305
334 331 331 331 327 328 327 327 328 329 330 329 328 328 329 328 329 329 328 329 329 327 327 327 327 326 326 325 324 323 322 323 322 321 320 319 319 318 315 316 316 313 310
335 332 333 334 332 329 327 328 329 328 326 329 329 327 327 328 329 328 330 330 329 327 325 326 326 325 325 325 324 323 322 322 322 321 321 320 319 318 317 316 315 314 312
336 335 334 335 334 332 331 332 330 329 329 329 329 329 330 329 330 330 330 330 329 327 325 325 325 324 324 324 323 323 322 320 321 322 321 320 321 318 317 316 315 314 312
335 334 334 334 335 334 332 332 331 331 330 330 330 331 331 332 331 331 330 328 327 326 325 325 325 325 324 323 324 322 321 320 320 320 321 321 321 318 318 316 314 313 312
334 336 335 334 334 334 334 334 333 332 332 331 331 331 332 331 330 329 328 327 327 326 324 325 325 324 324 323 322 321 321 321 319 318 319 321 320 319 318 316 314 312 312
332 332 331 333 334 334 334 334 333 333 333 333 332 332 331 331 330 328 327 326 326 324 324 324 323 322 323 321 320 319 318 318 319 319 318 320 320 318 317 315 313 313 312
325 329 328 328 330 334 334 334 334 333 333 332 332 331 330 330 330 327 325 324 325 323 323 322 321 320 319 319 318 316 314 315 316 317 317 318 318 318 317 315 315 311 311
322 329 329 327 328 330 332 332 332 332 333 332 331 331 331 328 329 328 326 324 323 324 322 320 319 318 317 316 316 316 313 312 313 315 316 317 316 316 318 316 313 311 309
325 319 320 324 328 331 330 329 330 331 331 331 331 332 330 330 328 326 324 323 321 322 320 319 317 317 316 314 314 313 312 311 312 312 314 314 314 315 315 313 311 310 309
323 320 318 318 318 319 321 326 331 332 332 330 330 330 329 328 326 325 324 322 320 321 319 317 316 315 314 313 313 312 311 310 310 310 310 310 311 312 311 311 310 309 309
315 314 313 313 314 315 317 319 323 328 331 330 330 329 329 327 326 323 322 323 319 320 317 315 314 313 312 312 311 310 310 309 309 309 309 310 310 310 310 309 309 309 308
312 311 311 311 312 312 313 315 316 319 326 326 329 325 326 325 325 322 321 320 318 318 315 315 313 312 311 311 310 309 308 308 308 308 308 308 307 308 308 307 306 306 305
311 311 311 311 311 311 312 313 316 316 320 323 323 324 319 323 323 321 320 318 315 313 313 313 311 310 307 308 308 308 307 307 307 306 306 306 306 305 305 305 304 304 303
312 312 312 312 312 313 313 314 316 321 323 322 322 321 320 321 320 319 316 311 310 310 310 309 308 307 307 306 306 306 305 305 305 305 305 305 305 304 303 303 303 303 302
312 311 311 311 312 312 313 314 316 318 319 320 320 319 318 318 318 313 309 309 308 308 308 307 306 306 306 305 305 304 304 304 303 303 303 303 302 302 301 298 294 291 290
309 309 309 309 310 310 311 312 315 316 317 316 316 317 317 314 309 308 308 308 307 307 307 307 306 305 304 303 303 303 302 301 301 300 299 297 294 291 290 289 289 288 288
308 308 308 308 308 308 309 309 310 310 311 311 310 309 308 308 308 308 307 307 306 304 304 304 304 303 302 301 300 300 299 297 293 291 290 289 289 289 289 289 289 289 289
307 307 307 307 307 307 308 307 308 308 308 308 308 308 308 308 307 307 306 305 304 303 303 302 301 299 297 296 295 293 291 289 289 289 288 287 288 288 288 290 290 290 290
307 306 306 306 307 307 307 307 307 307 307 307 307 307 306 306 305 304 303 303 302 298 295 292 291 291 290 290 289 289 288 288 287 288 287 288 289 289 290 290 291 290 290
306 305 305 305 305 305 306 306 306 306 305 305 305 304 303 303 302 300 295 291 290 290 290 289 289 289 289 288 288 287 287 287 287 288 289 289 290 290 290 290 291 291 291
305 302 302 302 303 304 303 303 304 303 303 302 302 301 302 297 292 290 290 290 290 289 289 288 288 287 287 287 287 287 288 288 289 289 289 289 289 290 290 290 290 290 290
303 302 301 300 301 300 300 300 300 300 300 300 299 293 290 290 289 289 289 289 289 288 288 288 287 287 287 287 287 288 289 289 289 288 290 289 289 289 290 290 289 289 289

GFSMA_850_thetae_096.txt.gz
Theta_e
324 328 332 332 329 331 330 330 334 333 329 328 325 320 319 320 324 323 323 324 324 324 323 323 324 324 324 323 321 319 320 321 317 312 307 305 304 304 304 304 304 305 305
331 330 332 334 334 335 334 334 332 328 330 328 329 328 321 319 320 322 323 325 325 325 325 325 324 325 326 326 325 324 321 320 320 320 320 313 308 305 304 303 303 303 304
331 332 333 334 333 333 331 329 330 329 325 326 326 326 327 323 324 325 325 326 326 326 326 326 326 326 326 326 326 325 324 322 321 320 320 319 318 310 307 312 313 314 310
327 327 329 331 328 330 327 327 325 323 322 324 325 326 327 325 324 326 328 328 327 327 327 327 326 327 326 326 326 325 325 324 323 322 321 320 319 317 315 316 316 314 313
333 330 328 329 327 327 326 326 325 325 326 327 327 326 327 327 327 328 328 328 328 328 326 325 325 326 326 325 325 324 324 324 324 322 321 321 320 319 317 317 316 315 314
333 332 332 332 331 328 326 325 326 326 326 327 327 327 326 327 327 327 328 329 330 329 327 324 324 325 324 324 324 324 323 323 324 323 322 320 320 320 318 316 315 314 314
336 333 331 334 334 332 330 329 329 328 328 327 328 328 328 329 329 330 330 330 329 329 328 325 325 325 324 324 324 323 323 322 322 322 322 322 320 321 319 317 316 314 314
336 336 334 334 336 335 333 332 332 330 329 329 329 330 330 330 331 331 330 330 329 328 327 326 324 325 324 323 323 324 323 322 320 321 321 321 321 321 319 317 317 315 312
335 333 334 333 333 334 334 333 333 332 331 331 331 330 331 331 330 330 330 330 327 326 326 325 324 324 324 323 322 322 321 321 321 320 319 319 320 319 319 318 317 313 312
333 333 332 331 331 331 331 332 332 332 332 332 332 332 332 331 331 329 328 327 326 325 325 324 323 322 322 322 321 320 318 318 317 317 318 319 319 319 318 318 316 313 313
326 325 327 328 327 325 325 326 329 330 331 333 332 332 332 331 330 330 328 328 326 325 324 323 322 321 319 319 318 317 317 316 315 313 315 317 318 318 320 318 317 315 312
326 324 324 326 327 324 323 323 324 327 328 331 333 332 331 330 328 329 328 327 326 325 323 323 321 319 317 316 316 314 314 314 313 311 313 315 316 316 317 319 316 315 312
324 324 324 323 322 319 320 320 321 327 331 332 332 332 332 332 329 327 325 325 324 322 320 318 318 319 317 316 314 314 312 312 311 311 313 313 313 313 316 315 313 313 312
320 320 319 317 317 320 319 317 325 331 332 330 331 331 329 329 327 325 326 324 323 323 320 319 318 316 315 314 313 312 312 311 310 309 310 310 310 310 311 314 312 311 310
324 322 325 323 318 315 315 314 316 320 326 326 327 327 325 326 325 324 327 324 323 321 319 318 317 316 314 312 312 311 310 309 309 309 308 308 308 309 309 309 309 309 308
317 315 313 312 312 311 311 312 313 315 319 324 326 322 324 320 324 325 325 323 321 320 318 317 316 315 313 311 310 310 309 308 308 308 308 308 308 308 308 308 308 308 306
312 312 311 311 311 311 311 311 312 312 315 317 322 325 318 323 322 322 321 322 320 319 315 315 314 311 309 308 307 308 307 307 307 307 307 306 306 306 305 305 304 304 305
311 311 312 312 312 312 312 312 313 317 320 320 320 320 320 320 321 321 320 320 319 313 311 310 309 309 307 305 306 306 305 306 305 304 305 305 305 305 304 303 303 303 303
312 312 312 312 312 312 312 312 313 315 317 318 318 320 319 318 319 318 317 317 309 309 309 309 308 306 305 304 305 305 304 303 303 303 303 303 303 302 301 301 299 296 293
311 310 309 309 309 309 310 310 311 313 315 315 316 316 316 315 315 315 314 308 308 308 308 307 307 306 306 305 304 304 302 302 301 300 300 299 298 294 292 291 290 290 289
310 309 309 308 308 308 308 308 309 310 311 313 313 313 313 313 313 309 308 308 307 307 306 306 306 305 304 303 302 301 300 300 298 294 291 290 290 289 289 289 289 289 289
309 309 308 307 307 307 307 307 307 308 308 308 309 309 308 308 307 307 307 306 306 305 305 305 304 303 302 300 299 298 296 293 290 290 289 288 288 289 289 290 290 291 291
308 307 307 307 306 306 307 307 307 306 307 307 307 307 306 306 306 305 305 305 304 304 302 301 300 296 295 293 292 290 289 289 288 289 288 288 289 290 290 291 291 291 291
307 307 306 306 306 305 305 306 306 306 306 306 305 305 305 305 304 304 303 302 300 297 294 292 291 291 290 290 290 289 288 288 288 288 289 289 291 290 290 291 291 291 291
306 306 305 304 303 303 304 304 304 302 302 303 303 303 303 302 301 301 296 291 290 290 289 289 289 289 289 289 288 288 288 288 289 290 290 290 290 291 290 291 291 291 290
305 305 304 302 301 301 301 300 301 300 301 301 301 301 300 299 294 290 289 289 289 289 289 289 289 289 288 288 288 288 288 289 289 289 290 290 290 290 290 290 290 290 290

GFSMA_850_thetae_099.txt.gz
Theta_e
326 324 324 326 325 324 323 325 327 327 328 324 324 320 319 320 322 321 321 323 324 324 325 325 324 325 325 325 325 323 321 320 321 319 314 308 305 303 303 303 304 305 305
324 323 326 330 330 329 331 331 329 329 329 325 326 324 322 318 318 320 322 324 325 325 325 326 326 325 326 326 326 325 324 322 320 320 320 318 313 306 305 309 314 314 312
329 330 330 333 332 332 332 332 332 328 325 324 324 323 323 323 322 324 325 325 326 326 326 326 326 326 326 326 326 325 325 324 322 321 320 320 318 313 315 317 316 316 314
330 331 331 333 334 333 334 332 329 327 326 324 322 322 323 324 324 324 325 326 327 327 327 326 325 325 325 325 325 326 325 325 323 322 321 320 319 318 316 317 316 315 315
325 326 329 330 330 329 327 327 325 325 324 324 324 325 325 325 326 326 327 328 328 328 328 326 324 324 325 324 324 324 325 325 324 323 322 321 320 319 318 317 315 314 314
331 330 329 328 328 328 327 326 326 326 325 326 328 326 326 326 326 326 327 328 329 330 329 328 325 324 324 324 324 324 324 325 324 324 322 322 321 320 319 317 316 314 313
335 334 331 329 330 330 327 327 327 327 328 327 327 327 327 327 327 329 330 329 330 329 328 328 326 325 324 324 323 322 324 323 322 322 322 321 321 320 320 318 317 315 314
335 335 333 332 332 333 333 332 330 330 330 329 329 329 329 329 329 330 331 330 330 329 328 328 325 324 324 324 323 322 322 321 321 321 321 321 321 320 320 320 317 316 314
334 335 335 333 334 335 334 333 333 332 332 331 330 330 330 330 330 331 331 331 330 328 327 326 325 323 323 323 322 322 320 319 319 320 320 319 319 320 320 319 318 317 314
333 334 334 332 332 333 332 331 330 332 332 331 330 330 330 331 331 329 330 329 328 327 325 325 324 323 322 321 321 320 319 318 317 317 317 317 318 319 319 319 318 316 313
330 330 328 332 330 329 328 327 326 326 326 327 326 326 327 329 331 329 329 328 326 326 325 324 323 322 321 320 318 316 315 315 315 315 314 312 312 315 318 319 319 317 315
326 326 325 325 328 328 326 324 324 324 323 324 325 326 327 328 331 331 328 327 324 324 322 323 322 321 319 318 317 316 314 313 314 313 311 313 315 315 316 319 320 318 315
326 326 326 325 325 323 323 321 321 322 320 319 318 325 324 330 330 327 328 326 324 324 323 322 320 318 318 317 315 315 313 312 312 312 314 315 312 312 315 316 316 314 313
323 324 324 323 324 324 326 325 321 318 319 318 319 322 326 326 327 327 326 325 325 323 321 322 319 318 317 316 314 312 312 311 311 310 309 310 310 309 310 312 313 313 312
321 322 321 320 318 318 319 319 320 320 318 318 319 323 326 326 326 325 325 324 325 323 322 321 319 318 316 315 313 312 311 310 309 309 308 309 308 308 308 309 309 310 309
325 325 324 324 323 322 315 312 312 312 312 313 314 320 322 324 324 323 323 322 324 323 322 319 318 317 315 314 313 311 310 309 309 308 308 308 307 307 307 308 307 307 307
320 319 317 313 312 311 311 311 311 311 311 311 313 318 322 320 324 323 322 320 320 320 321 318 317 314 312 310 308 308 308 307 307 307 307 307 307 306 306 305 305 305 305
312 311 311 311 311 311 312 312 312 312 312 312 314 315 318 320 318 318 320 322 320 320 319 315 313 312 310 308 305 305 305 306 305 304 306 306 306 305 304 304 303 303 303
312 312 312 312 312 311 311 311 312 312 313 314 315 317 317 319 318 318 319 318 318 317 314 310 309 307 307 306 304 303 303 304 304 303 304 303 303 303 302 302 301 300 296
311 310 310 310 309 309 309 309 310 310 311 313 315 315 316 316 316 316 316 315 315 312 308 308 308 307 305 304 303 303 303 302 302 301 301 300 299 298 296 294 292 290 290
310 310 310 310 309 309 308 308 308 308 309 309 312 311 312 312 312 312 312 313 310 307 307 307 307 306 304 304 304 303 301 301 300 298 295 292 290 290 289 289 289 289 289
310 310 309 309 309 309 308 307 307 307 307 308 308 309 310 310 311 311 311 307 307 307 307 306 306 305 304 303 302 301 299 298 295 291 290 290 288 288 289 289 289 290 291
309 309 309 309 308 308 308 307 306 306 306 306 307 307 307 307 307 307 306 306 306 306 304 304 303 303 302 300 298 296 295 293 290 289 289 289 289 290 290 290 291 291 291
309 308 308 308 307 307 307 307 306 305 305 305 305 305 306 306 305 305 305 304 302 303 303 303 301 298 294 293 292 290 289 289 289 289 289 289 290 291 290 291 291 291 291
308 307 307 306 306 305 305 305 305 304 302 302 302 303 303 304 303 303 303 301 301 300 297 292 291 290 290 289 289 289 289 289 289 289 290 290 290 290 290 290 291 291 290
306 306 305 305 304 304 301 303 302 300 300 301 301 301 302 301 300 300 300 296 290 290 290 289 289 289 289 288 288 288 288 288 289 290 290 290 290 290 290 290 290 290 290

GFSMA_850_thetae_102.txt.gz
Theta_e
323 323 325 323 322 321 322 322 324 327 325 322 321 320 321 320 320 320 321 322 324 324 325 325 325 325 325 325 325 324 322 320 320 320 316 311 307 305 304 305 310 313 313
325 323 322 325 325 325 324 327 329 328 327 326 327 324 322 319 318 319 321 323 324 325 325 325 325 325 325 325 325 325 324 322 321 320 320 318 312 309 315 317 316 315 314
324 321 323 327 330 330 330 329 329 328 328 327 323 323 324 323 321 322 324 325 326 326 326 326 325 326 326 325 325 325 325 324 323 321 320 319 317 316 317 317 316 315 314
325 326 327 328 331 330 331 331 330 329 327 326 323 323 322 323 324 323 324 325 327 327 328 327 325 324 324 324 324 325 325 325 324 323 321 321 319 317 317 317 316 315 314
324 326 328 329 331 332 332 331 331 328 326 325 323 323 323 325 325 326 326 326 327 328 328 328 327 324 324 324 323 324 324 325 324 323 322 321 320 319 318 317 316 314 314
326 326 329 331 331 332 331 329 326 326 326 325 326 325 325 325 325 326 326 328 329 329 329 329 328 326 324 324 323 320 322 324 324 324 323 322 321 320 319 318 317 316 314
334 332 330 328 328 328 328 327 326 326 326 326 327 327 326 326 326 327 328 329 329 329 328 328 328 327 325 323 323 323 322 322 323 323 322 322 322 320 320 320 318 316 314
334 334 334 333 330 329 330 330 329 328 327 328 329 329 329 328 328 328 329 330 330 329 329 328 327 327 325 323 323 323 322 320 319 319 319 321 321 321 320 319 318 316 315
335 334 336 334 333 331 328 329 330 330 331 331 331 330 330 330 330 330 330 330 330 329 329 328 326 325 322 321 322 322 321 320 320 319 318 319 319 319 319 320 318 317 316
336 335 334 334 332 332 328 330 328 329 330 329 331 331 330 329 329 329 329 328 329 328 327 325 325 324 323 322 321 320 319 318 317 317 316 316 316 316 317 319 319 318 317
335 333 333 334 333 331 331 331 329 329 328 327 326 327 326 325 325 325 327 328 327 326 326 324 324 321 322 321 319 318 316 316 314 313 314 314 313 312 311 315 319 319 317
331 330 330 329 330 330 329 327 326 325 325 324 323 323 324 325 323 323 326 327 328 326 325 323 322 321 321 319 317 317 316 315 313 312 312 311 315 315 314 314 317 319 317
327 327 327 328 328 327 327 326 325 323 322 323 321 321 320 320 323 321 324 325 326 327 325 322 322 321 320 318 317 316 314 312 312 312 314 316 314 311 315 316 320 319 315
325 325 326 325 325 325 325 325 325 325 324 324 323 320 318 320 321 324 323 325 326 326 325 323 321 321 320 318 317 315 313 311 311 312 312 312 311 309 310 314 315 315 314
321 320 321 321 321 321 320 318 319 319 319 319 323 323 323 321 326 326 326 326 325 325 323 323 321 320 320 317 316 315 313 311 310 310 309 309 309 309 308 309 309 310 311
321 320 321 323 323 321 320 321 323 319 315 312 312 312 314 316 321 325 322 323 323 324 323 321 321 320 318 316 314 312 312 310 309 309 308 308 308 307 307 307 308 307 307
322 323 324 324 323 322 317 313 311 311 311 311 311 311 312 317 320 322 322 323 322 321 323 320 320 319 317 315 311 309 308 307 307 307 307 307 307 307 307 306 306 306 306
316 314 314 313 312 311 311 311 311 311 312 312 312 312 312 315 317 319 319 320 320 321 318 320 319 317 315 312 309 307 305 305 304 304 305 305 305 305 305 305 305 304 303
315 312 311 311 311 311 311 311 311 311 311 311 312 312 314 315 317 317 316 319 318 319 319 317 315 313 311 309 307 305 303 302 303 303 304 304 304 303 304 303 303 302 301
313 312 312 311 310 310 310 310 309 309 309 309 310 313 313 315 317 317 317 316 316 316 315 315 311 307 307 306 305 304 303 302 302 302 302 302 301 301 301 300 298 295 292
311 311 311 310 310 310 310 310 309 308 308 308 308 309 310 312 313 313 314 314 313 312 313 311 307 306 306 305 303 303 302 302 301 300 299 298 296 294 292 290 289 289 289
310 310 310 310 310 309 309 309 309 308 307 307 307 307 307 309 309 310 310 310 310 311 308 306 306 306 306 304 303 303 302 301 299 298 296 291 290 289 289 289 289 289 290
310 310 310 309 309 308 308 308 307 307 307 306 306 306 306 307 307 307 308 308 308 307 306 305 305 305 304 304 303 302 301 299 297 293 290 289 288 288 289 290 290 290 291
310 309 309 308 308 307 307 307 306 306 306 305 304 304 304 304 305 305 304 304 304 304 305 304 303 303 302 300 299 297 296 294 292 289 288 288 289 290 290 290 291 291 291
309 308 307 307 306 305 305 305 305 304 304 302 301 301 301 302 302 302 302 302 302 302 301 302 302 301 299 294 293 291 290 290 289 288 288 289 290 290 290 291 291 291 291
307 307 306 306 305 305 304 304 304 303 302 301 300 300 301 301 301 301 301 299 299 298 297 293 292 290 290 290 289 289 288 288 288 288 290 290 290 290 290 290 290 290 290

GFSMA_850_thetae_108.txt.gz
Theta_e
317 318 318 319 319 318 317 317 317 319 321 322 322 321 322 321 321 321 321 322 323 324 324 325 324 324 324 324 324 324 323 322 321 320 318 316 313 315 318 317 316 315 314
316 317 317 317 317 318 319 319 319 321 324 323 322 321 322 321 320 319 320 321 323 324 325 325 326 326 324 323 324 324 324 324 323 321 320 319 317 318 318 317 316 314 314
321 321 320 320 322 322 322 323 324 327 328 327 325 325 325 325 325 320 320 322 324 326 327 327 326 325 325 324 324 324 324 323 324 323 322 320 318 318 318 317 316 314 313
323 323 324 325 326 326 326 325 327 328 328 327 326 325 323 324 324 324 322 323 324 326 327 327 327 325 324 322 323 324 325 324 324 323 322 321 320 319 318 317 316 315 314
324 324 321 322 327 329 329 330 330 329 329 328 326 326 325 323 323 323 325 325 324 325 327 328 328 327 325 323 322 322 323 324 323 323 324 322 321 320 318 318 316 315 314
324 324 325 326 327 328 330 329 329 330 329 327 326 325 324 324 324 325 326 326 326 327 328 328 327 327 325 325 324 323 322 322 322 322 323 323 321 320 320 319 317 316 315
329 326 325 326 327 327 328 329 331 329 328 327 327 326 325 326 326 325 325 326 326 327 328 328 328 327 326 324 324 320 321 321 322 320 320 321 323 321 321 320 318 317 316
333 332 331 329 328 328 329 330 330 329 328 328 328 328 327 328 328 328 327 327 327 327 328 329 328 327 327 324 323 321 322 321 321 321 319 319 319 319 320 321 319 318 317
335 333 334 333 333 333 331 330 330 329 328 329 329 329 329 329 329 328 326 328 328 327 326 327 327 327 328 325 323 321 321 320 320 319 318 318 319 318 317 319 320 319 317
333 334 334 334 333 333 333 331 331 331 328 327 329 327 327 327 328 328 327 327 326 326 327 323 325 327 326 324 322 321 321 320 318 318 315 315 313 313 314 316 317 320 318
334 334 335 335 334 333 332 331 329 327 327 328 327 323 325 327 328 328 327 326 325 324 322 323 323 324 326 324 321 321 320 318 316 316 316 314 311 311 311 311 313 317 320
334 334 333 330 327 325 331 331 329 329 329 328 327 327 327 326 325 324 324 325 322 322 323 322 320 322 325 324 321 321 319 318 316 315 313 312 312 315 317 316 316 314 315
331 331 331 330 330 328 327 327 327 327 328 326 326 325 324 324 322 322 323 322 320 321 324 322 320 321 325 324 321 321 319 318 317 315 314 315 316 316 316 313 313 316 316
330 328 327 326 323 325 326 325 324 326 326 325 325 324 324 322 321 321 321 321 320 322 323 323 323 324 325 324 321 321 319 318 316 314 312 315 315 315 313 311 312 316 319
326 326 324 322 323 324 322 321 321 323 322 320 319 321 322 321 321 321 323 323 323 323 322 322 323 324 324 323 321 320 319 317 314 313 312 311 310 310 310 309 312 316 316
325 323 321 321 320 320 320 322 323 322 321 322 319 313 311 311 311 312 312 313 317 320 322 321 321 321 321 322 320 319 318 316 314 312 310 310 309 309 308 308 307 311 310
323 321 321 321 321 322 321 320 319 316 313 311 311 311 311 311 312 312 312 313 313 320 319 322 320 320 320 319 318 318 316 314 313 311 307 307 307 308 307 307 307 307 307
321 321 321 321 317 314 312 311 311 311 311 311 311 311 310 310 311 312 312 318 318 317 318 318 318 318 318 318 316 315 314 313 311 308 304 303 304 307 306 306 306 306 306
321 322 322 315 313 312 311 311 311 310 310 310 310 310 310 309 309 309 310 312 315 317 316 317 318 317 317 317 315 314 312 310 307 305 303 302 302 304 305 305 306 305 305
322 317 314 313 312 311 310 310 310 310 310 310 309 309 309 308 308 308 309 311 314 314 315 315 315 316 314 314 313 312 310 308 305 304 302 301 300 302 303 303 304 304 304
313 313 313 312 311 310 310 310 310 310 309 309 308 308 308 307 307 307 308 309 310 312 313 312 313 312 312 312 311 311 307 305 304 303 301 300 300 300 301 301 301 301 300
314 313 310 310 310 310 310 310 309 309 308 308 308 307 307 306 306 306 304 305 306 308 309 310 310 310 310 309 308 306 305 304 302 302 301 301 300 298 297 295 294 293 291
310 310 310 309 309 309 309 309 308 308 308 308 307 307 305 304 304 303 302 304 303 304 306 307 307 308 308 307 304 304 304 303 302 301 300 300 298 296 293 290 290 289 289
309 309 309 309 309 309 309 308 308 307 307 306 306 305 304 303 301 301 300 300 301 302 302 303 304 305 304 303 302 302 302 301 300 300 300 296 294 292 289 289 289 289 290
309 309 309 309 309 308 307 307 307 306 306 305 304 304 303 301 300 301 300 300 300 300 300 301 301 301 301 302 302 302 300 300 300 299 298 295 290 289 289 289 290 290 291
309 309 309 309 308 307 307 306 306 305 304 304 303 302 301 299 299 300 300 299 299 299 299 300 300 300 300 301 300 300 299 299 298 297 295 292 289 288 289 290 290 291 291

GFSMA_850_thetae_114.txt.gz
Theta_e
330 331 331 331 330 326 321 320 321 320 322 323 322 323 322 324 322 322 327 322 323 324 324 325 325 323 322 321 322 323 323 323 322 321 320 317 317 318 317 316 315 314 313
330 330 329 328 325 321 320 320 320 320 320 324 323 321 321 320 320 320 323 323 322 324 325 326 327 326 324 322 322 323 323 323 323 323 322 320 318 318 318 317 315 315 314
326 322 321 321 321 320 319 319 319 321 326 325 328 324 324 325 323 322 319 322 323 324 325 326 328 326 323 322 321 322 323 323 323 322 322 322 320 318 318 317 316 315 314
320 320 320 319 319 319 318 317 319 323 330 329 329 327 326 324 324 324 324 322 322 324 325 326 327 327 324 322 322 321 321 322 323 322 322 322 322 320 319 318 317 315 315
319 319 319 319 317 318 320 322 323 328 329 329 328 326 326 326 325 323 322 323 323 323 324 326 327 328 327 325 324 324 322 320 321 321 322 321 323 322 320 319 318 316 315
317 317 317 319 321 325 326 326 326 329 330 330 328 326 325 324 323 323 322 323 324 325 325 325 327 327 327 327 325 325 323 322 320 320 320 321 321 323 321 320 319 318 316
322 323 325 328 329 329 329 330 331 331 330 329 327 328 325 325 326 326 326 326 326 326 326 327 327 328 327 327 327 326 324 322 321 321 320 320 320 319 323 321 320 319 317
328 327 327 327 327 328 330 330 331 331 330 328 328 329 330 330 328 327 327 327 327 327 326 327 327 328 328 328 326 327 324 323 321 321 320 319 320 319 319 321 321 320 319
323 326 327 328 327 328 329 329 330 331 330 328 328 329 330 330 329 327 327 328 326 327 327 327 327 326 325 326 326 327 325 323 321 320 320 319 318 318 318 318 319 319 320
327 327 327 328 328 328 329 329 330 330 329 328 328 326 327 328 330 328 327 326 326 327 327 327 326 326 324 325 324 325 324 323 321 320 318 317 316 316 315 314 316 317 318
331 330 329 329 329 329 329 329 328 325 325 327 327 327 327 327 326 326 326 327 326 323 324 323 323 321 320 320 321 321 322 323 321 320 318 317 315 315 313 312 311 313 315
331 331 331 331 330 330 329 327 326 324 325 327 327 328 328 327 325 324 325 325 324 323 322 322 321 320 322 321 321 322 321 323 322 320 318 317 316 315 315 315 315 317 315
330 328 328 330 331 330 325 328 327 327 329 329 328 328 327 325 324 323 324 324 323 323 321 321 321 320 321 321 320 321 322 322 321 320 318 319 316 315 315 316 316 316 314
327 327 327 329 327 329 329 329 328 328 327 327 327 326 326 324 322 322 325 323 323 322 321 317 316 317 319 319 320 321 321 321 319 318 318 317 315 314 314 313 311 311 310
327 327 325 327 330 330 328 325 325 323 324 324 324 324 321 319 321 317 316 318 320 319 319 320 319 317 318 320 320 320 319 319 318 317 316 315 314 312 312 312 310 309 310
324 326 329 329 328 325 324 322 320 321 322 322 321 320 321 315 311 311 311 311 312 314 318 316 316 315 318 317 318 320 318 317 318 317 315 314 314 313 311 310 310 311 316
327 328 329 324 322 321 320 320 321 321 321 320 316 312 311 311 311 311 311 311 311 312 313 314 316 314 317 317 318 318 317 318 317 316 316 313 313 312 309 308 309 309 309
326 325 322 321 320 320 320 318 316 313 312 311 311 311 310 310 311 311 310 310 310 310 310 314 314 315 314 315 316 316 316 316 314 313 313 312 312 310 306 306 306 308 308
324 323 321 320 320 320 316 313 312 312 311 311 310 311 311 311 310 310 310 309 309 309 310 310 311 313 314 314 315 316 315 315 313 311 310 309 308 307 304 303 304 306 307
324 321 321 320 321 314 313 313 312 311 311 311 311 311 310 310 310 309 309 309 308 308 308 309 311 312 312 312 313 313 313 313 312 309 308 308 306 304 303 302 302 304 306
322 321 321 320 314 313 313 312 311 310 310 310 310 310 310 310 309 309 308 307 306 306 306 306 308 309 310 311 312 312 311 309 308 307 307 306 304 303 302 302 301 302 303
321 320 318 314 313 313 312 310 310 310 310 309 309 310 310 309 308 307 306 306 304 304 303 304 304 305 307 308 309 309 309 308 307 307 306 304 303 303 302 301 300 301 301
318 315 312 312 312 310 309 309 309 310 309 309 309 309 308 307 306 305 305 304 303 303 302 301 302 303 304 305 305 306 306 307 306 306 305 304 303 302 301 300 299 298 298
312 312 311 310 309 309 309 309 309 309 308 308 308 308 306 306 305 305 304 303 303 301 301 300 301 301 302 303 303 304 304 303 303 303 302 302 302 301 300 299 297 296 293
311 310 309 309 309 310 309 309 307 307 307 307 307 306 305 304 304 304 304 302 301 301 300 300 300 300 300 301 302 302 302 302 302 302 302 300 300 300 299 297 296 294 290
308 308 308 309 309 309 308 307 306 306 306 306 305 304 303 302 301 301 299 299 299 299 300 300 300 300 300 301 301 301 301 301 301 300 300 299 299 298 295 293 291 289 289

GFSMA_850_thetae_117.txt.gz
Theta_e
334 334 334 335 331 332 330 330 330 330 329 329 329 328 328 330 329 329 328 322 322 323 324 324 325 323 322 321 322 323 322 322 322 322 321 318 318 318 317 316 315 315 313
334 333 333 335 333 333 331 329 328 328 328 328 328 327 325 325 327 328 329 324 322 323 324 325 327 326 324 321 321 322 323 323 323 323 322 321 319 318 318 317 316 315 314
333 333 333 334 333 332 329 327 327 326 328 329 329 328 326 326 324 324 326 327 324 322 324 325 329 328 324 321 321 321 320 322 322 322 322 322 321 320 318 317 316 315 315
333 333 333 332 331 329 327 326 325 326 330 332 333 331 329 328 328 328 325 324 326 326 324 325 326 327 326 322 324 323 322 320 320 321 322 322 322 321 319 318 317 316 315
332 331 330 329 328 326 326 325 325 329 332 331 329 329 327 325 324 327 327 326 325 325 327 329 326 327 327 326 325 324 324 323 322 320 320 322 322 322 322 319 318 317 316
329 329 328 327 326 325 326 325 330 331 333 332 328 326 325 325 327 326 327 327 326 325 325 327 328 327 328 327 326 325 324 323 322 321 320 320 321 321 322 322 320 318 317
326 325 326 328 326 326 329 327 327 327 329 328 328 328 329 330 329 327 326 326 327 325 326 327 329 329 328 327 327 327 326 325 323 321 320 320 320 320 320 322 321 320 319
322 322 328 329 329 331 332 330 330 330 330 328 329 331 331 331 330 328 327 326 327 327 327 326 327 327 327 328 328 327 327 326 323 321 320 320 319 319 319 320 320 322 320
326 323 332 331 330 329 331 329 329 329 330 332 330 331 330 331 331 330 327 327 328 326 326 326 327 327 327 326 325 326 327 326 323 322 320 320 318 318 317 317 318 320 321
330 329 330 326 326 325 328 328 328 329 330 333 330 328 328 326 329 329 328 327 326 326 327 327 327 327 326 325 324 324 322 324 322 322 321 319 318 316 315 315 315 317 318
323 323 325 327 327 328 328 329 329 330 330 330 327 328 327 327 327 327 327 325 327 325 323 324 324 324 322 321 320 320 320 321 322 321 321 319 318 317 317 314 315 316 315
322 327 328 327 328 328 328 329 329 327 326 329 326 328 327 329 328 325 324 325 325 324 323 322 322 321 320 321 322 321 321 321 322 322 320 318 318 318 317 315 315 315 316
328 329 329 329 329 330 330 329 325 323 327 326 325 328 328 328 327 326 326 325 325 324 323 320 320 321 321 320 321 322 321 321 320 321 319 319 319 318 316 315 314 315 316
332 331 329 329 329 327 325 324 324 326 327 328 329 329 327 327 326 323 321 321 323 323 322 322 320 317 316 317 319 319 320 321 319 320 319 315 319 318 315 313 313 312 311
329 327 327 327 326 323 323 325 327 328 330 328 326 326 326 325 323 320 321 318 321 319 319 318 320 318 317 315 318 319 320 319 317 319 318 318 318 316 317 314 312 310 310
328 328 327 327 325 323 323 326 329 326 325 323 323 323 323 320 320 317 311 311 312 313 318 313 316 315 313 314 314 318 317 318 317 316 316 316 316 315 315 313 310 309 310
326 325 323 324 324 323 325 327 325 321 321 321 322 321 321 317 311 311 311 311 311 312 315 315 313 312 311 314 314 316 316 317 316 315 315 314 314 314 314 313 309 308 309
324 322 322 324 325 326 325 325 321 321 321 320 318 315 312 311 311 310 310 310 310 310 310 311 311 311 311 313 313 314 315 314 314 314 313 312 313 313 312 311 309 306 308
323 324 326 326 326 324 324 321 320 318 315 313 313 312 311 310 310 310 310 310 309 309 309 308 309 309 310 311 312 312 313 313 313 313 312 311 311 310 310 308 306 304 306
326 327 326 324 323 322 320 320 316 313 313 312 311 311 310 310 310 310 309 309 310 309 308 307 307 307 306 308 310 311 311 311 312 311 310 309 309 308 307 306 304 303 304
326 325 322 321 320 320 320 315 313 312 312 310 310 310 310 310 309 309 309 309 309 308 306 305 304 305 305 306 307 309 310 311 310 308 308 308 307 306 305 305 303 302 303
324 323 321 320 320 321 315 312 312 311 310 310 310 310 310 310 310 310 308 308 307 305 304 303 303 301 302 303 305 306 308 309 307 308 307 307 306 305 304 303 302 301 301
322 321 321 321 319 315 312 311 310 309 310 310 310 310 310 309 308 308 307 306 306 305 304 303 302 301 301 301 303 304 305 306 306 306 306 306 305 304 303 302 301 301 300
321 320 319 316 313 311 310 309 309 309 309 309 309 308 308 307 307 305 305 304 304 303 303 302 301 301 301 301 301 301 303 303 304 304 304 303 303 303 302 301 300 300 298
317 314 312 311 310 309 309 309 309 309 308 307 307 306 306 305 304 304 304 303 303 303 303 301 301 301 300 300 300 301 301 302 303 303 303 302 302 301 301 300 299 298 297
311 310 310 309 308 308 309 309 308 307 307 306 305 304 304 304 303 302 301 301 301 301 301 301 300 300 299 300 300 300 300 300 300 301 301 300 300 300 298 299 298 296 295

GFSMA_850_thetae_120.txt.gz
Theta_e
332 331 329 324 323 322 322 323 327 330 330 329 329 329 330 329 329 326 326 321 322 322 323 324 325 324 321 321 321 322 322 322 322 322 321 320 318 318 317 317 316 315 313
331 332 330 325 325 330 326 328 330 328 329 329 328 327 324 329 328 328 326 325 321 322 323 324 326 326 324 320 319 321 322 322 323 323 322 322 321 319 318 317 316 315 314
331 333 329 325 330 332 331 329 328 328 327 328 328 327 325 324 324 323 325 325 325 323 323 324 326 328 325 321 321 320 319 319 320 321 321 321 321 321 319 319 317 316 314
332 334 331 331 332 332 331 327 326 326 327 326 330 330 329 328 328 327 326 325 325 325 325 325 325 326 327 324 325 324 323 322 321 320 321 322 322 322 321 318 318 316 315
333 330 331 333 333 330 328 326 323 323 328 329 331 331 329 327 326 327 328 327 326 325 325 327 328 326 326 327 326 325 325 325 323 323 322 320 320 322 322 322 319 318 317
332 333 333 333 331 327 325 322 321 325 328 329 328 327 327 328 328 327 326 327 326 326 325 325 326 326 326 327 327 326 325 324 324 323 321 321 321 321 320 321 322 320 319
332 332 331 329 327 323 321 319 321 325 329 331 330 328 329 329 327 327 327 326 327 326 326 326 326 325 328 326 327 327 327 326 326 323 322 321 320 319 320 321 321 321 320
331 328 328 327 323 322 320 322 324 326 328 329 329 331 331 331 331 329 327 326 326 327 327 327 327 327 327 327 327 326 325 326 327 326 323 320 319 318 318 318 320 320 320
327 327 326 323 322 323 323 325 328 329 329 332 331 330 330 330 331 330 329 328 327 327 326 326 326 327 327 327 327 325 325 325 326 325 322 320 319 318 316 316 316 318 319
326 326 325 325 321 325 326 328 330 330 331 334 333 329 328 327 326 329 328 327 326 325 326 325 325 327 327 326 324 322 322 321 322 321 321 321 320 318 317 317 317 317 317
326 324 326 322 323 327 327 329 328 328 329 331 331 328 327 327 326 328 327 327 324 325 325 323 322 322 323 321 321 321 320 320 321 321 322 322 321 319 318 317 315 314 314
329 329 327 326 327 327 327 327 328 329 330 328 328 328 326 327 328 328 326 325 324 324 323 323 322 321 321 320 320 320 321 322 322 321 321 321 317 317 319 318 316 314 314
330 330 328 326 327 327 327 328 329 327 323 322 326 326 326 327 328 327 325 324 323 323 324 321 319 318 319 319 318 319 321 321 320 320 320 320 318 319 319 318 317 315 314
326 323 324 327 328 328 329 329 326 325 324 323 326 326 329 329 329 327 325 321 321 320 320 318 319 319 318 316 315 315 318 319 319 320 319 318 318 319 319 318 317 316 313
323 325 328 329 329 329 328 325 325 323 323 322 327 327 329 326 326 326 322 319 320 317 316 317 317 318 317 316 313 313 315 316 316 317 316 318 318 317 317 316 316 315 315
328 330 330 328 329 326 324 324 323 322 322 327 326 327 325 326 325 321 320 315 311 312 314 313 314 313 313 313 311 313 313 315 315 316 315 316 315 316 315 315 314 314 312
329 328 327 327 326 324 324 324 323 322 328 327 325 323 322 322 321 318 312 311 311 311 312 311 311 311 311 310 311 311 313 313 314 315 315 314 314 314 314 314 313 312 309
327 328 327 326 325 325 323 323 323 322 324 324 322 322 321 320 313 312 311 311 310 310 310 309 309 309 309 309 309 311 312 311 311 312 312 313 312 312 313 313 312 311 310
325 327 327 326 325 324 324 323 323 327 325 321 321 320 316 312 311 311 310 310 310 309 309 309 309 308 308 307 306 305 311 311 310 311 311 312 312 311 311 310 310 309 309
325 325 325 325 324 323 323 324 325 325 321 320 317 314 313 311 311 311 310 310 309 309 309 308 307 306 306 305 305 305 307 309 309 310 310 310 309 309 308 308 306 306 305
324 324 322 322 323 324 326 325 325 321 320 317 312 312 311 310 310 310 309 309 309 309 308 307 305 304 303 303 302 303 305 306 307 309 309 309 307 306 306 307 305 305 303
323 324 325 326 324 323 324 323 320 320 314 312 311 311 310 310 310 309 309 309 308 308 307 305 304 303 302 302 302 302 303 304 305 307 307 307 306 305 305 305 304 303 302
324 324 324 323 323 322 320 320 318 312 312 311 310 310 310 310 310 310 309 308 308 306 305 304 303 302 302 301 301 301 302 302 303 304 304 306 305 305 304 304 303 303 302
323 322 321 320 320 320 319 315 311 310 310 310 310 310 310 309 309 308 307 306 305 305 304 303 302 301 301 301 301 301 301 301 302 303 303 304 304 304 304 303 303 302 301
320 320 319 319 320 318 314 311 310 310 309 309 309 309 307 307 306 306 305 305 304 303 303 301 301 301 301 301 301 301 301 301 301 302 302 302 303 303 302 302 301 300 300
318 317 317 316 314 311 310 309 309 309 309 309 308 307 306 305 304 304 304 303 302 301 301 300 300 300 300 300 300 300 300 300 300 300 301 301 301 301 300 301 300 299 298

GFSMA_850_thetae_123.txt.gz
Theta_e
331 330 327 319 318 319 321 323 326 328 329 328 330 329 329 328 327 325 325 321 322 322 323 324 324 324 321 320 320 321 322 322 322 322 321 320 318 318 317 316 315 314 312
331 330 326 320 319 321 322 323 325 327 329 329 329 329 330 329 329 326 326 326 323 322 323 324 325 326 324 320 320 320 320 320 321 322 321 321 320 319 319 319 317 316 313
331 330 325 323 321 321 322 326 327 327 327 328 327 326 323 325 326 324 325 325 324 324 322 323 324 327 326 324 321 322 320 320 320 320 321 321 321 321 320 320 318 317 315
331 330 325 323 326 328 328 326 328 326 326 327 328 327 326 326 327 327 327 326 324 324 323 324 325 325 326 326 325 326 324 325 325 323 321 320 320 321 321 321 319 317 316
331 331 328 325 330 330 331 326 325 323 324 326 328 331 329 329 328 327 328 327 326 325 324 324 324 326 326 326 327 326 326 326 325 324 323 322 321 320 320 321 321 319 318
330 331 331 329 329 331 331 325 323 323 324 328 330 331 329 327 325 326 327 327 326 325 325 324 324 325 326 326 326 327 326 326 325 325 323 322 321 321 321 321 320 321 320
330 332 332 330 330 332 328 324 322 322 327 330 330 329 328 327 328 327 327 327 326 326 326 326 325 325 326 328 327 327 327 327 327 327 325 323 320 318 318 319 322 320 321
330 329 329 330 332 331 327 321 320 323 330 330 330 329 330 330 330 330 329 327 326 327 327 327 327 327 327 327 327 327 326 325 325 326 325 324 320 319 318 317 317 318 321
330 332 331 332 332 328 321 320 321 324 326 329 329 329 330 330 330 329 329 328 327 326 326 326 326 326 326 327 327 326 325 324 323 323 323 322 321 320 318 317 316 316 317
330 332 332 332 329 323 320 321 324 325 327 328 331 329 329 328 326 327 328 328 326 325 325 325 323 324 326 326 325 321 321 320 320 320 321 322 321 321 319 319 318 317 317
331 332 331 328 323 322 323 324 325 327 328 329 331 331 328 327 325 326 327 326 326 322 324 325 323 321 322 323 321 321 321 320 320 320 320 321 322 321 320 319 318 316 314
331 329 327 324 323 325 326 325 326 328 327 329 331 330 326 326 326 327 327 327 323 322 321 322 320 319 320 321 321 320 319 320 320 321 321 320 320 320 318 318 318 318 317
328 327 326 328 327 326 326 326 327 327 328 329 327 325 326 327 327 328 326 325 323 321 321 320 320 317 318 317 316 315 315 318 319 319 319 319 319 319 318 318 318 318 316
325 325 326 328 325 328 328 328 328 329 329 327 322 324 326 326 327 327 326 325 323 320 320 317 316 318 318 317 315 314 312 313 316 316 318 318 319 316 317 318 317 317 316
326 326 326 329 330 328 327 328 328 328 323 322 324 326 327 327 329 328 326 325 321 320 315 314 316 316 316 314 313 312 310 312 315 314 315 315 316 317 317 317 315 316 315
327 329 329 331 328 328 328 329 328 326 325 323 324 327 326 324 324 327 325 321 319 312 312 312 313 314 313 311 311 310 310 311 312 313 314 315 317 317 314 314 314 314 313
327 328 328 327 328 328 329 327 326 324 323 323 322 324 325 322 322 323 321 318 311 311 311 311 311 311 310 310 310 309 309 311 311 311 312 314 315 315 314 314 314 314 313
326 326 325 328 329 329 328 324 324 323 322 322 324 323 322 322 322 321 316 311 310 310 310 310 310 310 310 310 309 308 308 308 310 310 310 311 312 312 312 312 312 313 311
329 329 329 328 328 325 324 324 323 323 323 323 321 323 322 321 320 315 311 310 310 310 310 310 310 309 309 308 307 306 306 305 305 309 309 310 311 311 312 311 311 311 311
326 327 327 327 326 325 325 324 324 324 323 323 322 322 321 320 314 311 310 310 310 310 309 309 308 308 307 305 304 304 304 304 305 307 308 309 309 309 309 310 309 308 308
324 325 325 325 326 325 325 325 323 323 321 324 325 322 320 314 311 310 310 310 310 309 309 308 307 306 305 304 304 304 303 303 304 306 306 308 308 307 307 307 307 307 306
323 325 324 323 321 322 323 324 323 323 325 325 321 320 314 311 310 310 310 310 310 309 308 307 307 306 305 304 304 303 302 302 302 304 306 307 306 306 305 305 305 305 305
324 324 323 324 324 325 324 324 323 323 324 320 319 313 311 310 309 310 310 310 309 308 308 307 306 305 304 303 303 302 301 301 301 302 303 304 305 305 304 305 305 304 303
323 324 323 323 322 321 322 323 322 320 319 314 311 310 309 310 310 310 309 309 308 307 306 306 305 304 304 302 302 301 301 301 301 301 302 302 304 304 304 304 304 303 303
319 319 321 321 321 320 321 320 318 317 312 310 310 309 309 310 309 308 307 306 306 306 305 305 304 303 302 301 300 301 301 300 301 301 301 301 302 303 303 303 303 302 302
318 318 318 317 317 316 315 316 312 311 310 309 308 309 309 308 307 306 305 304 303 303 303 302 302 301 300 300 300 300 299 300 300 300 301 300 301 301 301 302 301 301 300

GFSMA_850_thetae_126.txt.gz
Theta_e
331 329 329 321 315 315 318 319 319 320 324 327 328 328 327 327 326 324 323 321 321 322 323 324 325 324 321 319 320 320 320 320 321 321 321 320 320 319 318 318 316 315 313
330 328 328 320 315 316 319 320 320 322 325 328 329 329 329 329 327 326 325 324 322 321 322 323 324 326 325 321 320 319 318 319 319 320 320 320 321 320 319 318 317 316 314
329 325 325 319 316 318 320 323 325 327 328 328 329 329 329 329 327 325 323 323 323 323 322 322 324 325 326 325 322 323 321 323 323 321 320 320 320 321 321 320 318 317 316
329 323 324 320 318 320 321 322 325 327 329 328 328 326 325 324 324 326 325 325 325 324 323 324 324 324 325 326 327 328 327 326 327 325 324 323 321 320 320 321 321 319 317
328 322 324 320 319 321 322 322 325 326 327 327 327 327 327 327 328 328 326 327 326 325 324 324 325 325 326 326 326 326 327 326 326 325 324 324 322 322 321 321 320 321 320
323 329 327 322 320 322 322 324 325 327 325 326 328 330 330 329 328 326 326 326 326 325 325 325 324 324 325 325 327 327 327 327 327 327 326 325 323 321 319 320 320 320 320
323 331 330 324 321 324 324 325 327 325 325 327 329 331 330 327 327 327 326 326 326 326 326 326 326 325 326 326 327 327 327 327 326 326 324 326 323 320 319 318 317 319 321
326 332 330 324 324 327 327 330 326 324 325 328 329 329 328 328 329 329 329 328 327 326 326 327 327 327 326 326 326 326 326 326 325 324 325 323 323 321 319 318 317 317 316
328 331 330 327 326 329 329 329 325 322 321 327 330 327 329 330 330 330 329 328 326 326 326 326 326 325 325 326 326 326 325 323 322 321 321 321 321 321 321 320 318 319 317
331 329 330 330 325 329 329 328 324 320 321 325 330 328 329 328 329 328 328 328 327 326 324 325 324 323 323 325 325 323 320 320 320 319 319 320 320 321 321 321 320 320 316
331 329 328 331 329 329 329 329 323 320 323 326 327 327 329 328 327 326 326 327 326 325 323 324 324 322 321 321 322 320 320 320 320 320 320 320 320 320 321 320 319 319 318
331 329 330 329 329 331 332 328 321 321 325 326 328 326 329 328 327 324 325 326 326 323 321 322 320 319 317 319 320 320 320 319 318 319 319 320 319 320 320 319 318 318 317
331 331 330 331 331 332 330 324 322 326 328 328 328 330 330 327 325 326 327 326 325 321 321 320 319 318 315 316 315 315 314 313 313 315 316 316 317 319 319 318 317 318 316
329 330 330 330 331 331 326 322 326 328 329 330 330 330 327 326 326 325 327 326 324 321 320 320 316 315 317 316 315 313 313 311 310 311 313 314 317 318 318 316 316 315 315
328 328 328 330 330 327 323 327 329 329 330 329 329 325 324 326 326 327 327 325 325 321 319 317 315 315 315 314 312 311 310 310 310 311 309 312 314 316 315 316 315 314 313
328 328 330 329 326 325 327 329 330 330 329 329 326 323 325 327 326 324 326 325 324 320 318 313 314 314 313 311 310 310 309 309 309 310 311 312 314 313 315 316 315 313 313
329 329 328 327 326 327 326 329 329 329 329 326 323 324 326 327 324 321 321 322 320 318 311 311 312 312 311 310 310 309 309 308 308 309 310 310 311 312 313 314 312 313 313
327 328 326 325 325 327 327 329 329 329 327 325 323 323 326 324 322 321 321 320 317 312 311 310 311 310 309 309 309 308 308 307 307 306 310 310 310 311 311 312 312 312 312
324 324 326 326 325 324 324 327 328 328 326 324 323 324 325 324 322 321 320 318 312 311 310 310 309 309 309 309 308 308 307 306 305 305 305 307 309 309 310 311 311 310 311
325 326 325 324 323 323 324 326 326 325 324 322 322 322 322 322 321 320 319 314 311 310 310 310 309 309 309 308 308 307 306 305 305 304 305 307 307 308 308 309 309 309 309
327 325 322 324 324 323 324 326 326 323 323 323 323 322 322 322 321 320 317 311 310 310 309 309 310 309 308 308 306 305 305 304 304 303 304 306 306 307 308 308 307 308 308
323 324 325 326 325 325 327 325 324 323 323 324 323 322 322 323 321 319 313 310 309 309 309 309 309 308 307 306 305 305 304 303 303 303 303 305 306 306 307 307 306 306 306
323 324 324 324 324 322 322 322 322 324 324 324 323 322 322 320 317 312 310 309 309 309 309 308 308 307 306 305 304 303 302 302 302 301 301 302 303 305 306 305 305 305 305
322 322 322 322 322 322 322 322 322 322 322 322 321 321 320 318 312 309 309 309 309 309 308 307 306 305 304 303 303 302 301 302 301 301 301 301 302 303 304 304 304 304 304
318 319 320 319 321 319 319 321 319 320 317 318 317 314 311 309 308 308 309 309 308 307 306 305 304 304 303 302 302 301 301 301 301 301 301 299 302 302 302 303 303 303 303
317 317 317 317 317 316 315 316 315 316 312 311 308 307 308 308 308 309 308 307 305 304 303 303 303 303 302 301 301 300 300 301 300 299 299 299 300 301 301 302 302 302 302

GFSMA_850_thetae_129.txt.gz
Theta_e
337 330 334 331 317 314 316 318 318 319 322 323 323 325 325 325 324 323 321 320 321 321 322 323 324 324 322 320 320 319 318 319 319 320 319 319 320 319 319 319 318 316 314
336 332 330 330 318 314 316 318 318 319 323 325 326 326 327 328 326 325 323 323 321 321 321 323 324 325 326 323 321 321 320 321 322 321 321 320 320 319 320 320 319 318 316
334 337 325 327 317 314 317 319 319 322 326 327 327 327 328 328 327 326 323 323 323 323 323 322 323 324 325 326 325 322 325 323 325 326 324 323 322 321 319 320 320 320 318
336 336 326 326 317 314 318 319 319 322 326 327 328 328 328 327 325 324 324 324 324 323 324 324 324 324 326 327 327 328 328 328 327 327 325 324 324 322 322 321 320 320 320
335 337 328 325 318 315 318 320 323 325 327 327 328 327 326 324 324 325 326 326 325 325 324 324 324 324 325 325 325 326 327 327 327 327 326 326 324 323 322 321 320 320 320
334 336 331 327 319 316 319 322 323 325 326 328 327 327 327 326 328 328 326 326 326 326 325 325 325 324 324 325 325 327 327 327 326 326 324 324 324 322 319 318 318 318 319
332 336 333 327 322 317 319 322 324 326 327 327 327 328 330 330 329 327 325 325 326 326 326 325 326 326 325 325 326 326 326 326 325 325 325 323 323 322 320 319 318 317 316
332 335 335 326 324 318 320 322 324 326 327 327 326 328 331 329 328 327 327 326 327 327 326 326 326 326 326 326 326 326 326 325 325 324 321 322 322 321 320 320 320 318 318
334 335 334 328 326 320 320 322 324 325 325 325 326 328 328 327 327 328 328 329 328 326 326 325 325 325 325 325 325 325 325 325 321 320 320 319 321 321 321 321 321 319 319
333 334 330 325 326 324 321 324 325 325 324 323 328 329 327 327 328 329 329 329 328 327 326 325 324 324 323 322 323 324 322 320 319 319 319 319 319 320 321 321 321 320 319
329 332 329 331 329 327 322 327 326 328 325 323 323 328 329 328 329 327 328 328 328 327 325 322 324 324 323 320 320 321 320 319 319 318 318 319 319 319 321 319 319 318 318
329 329 328 327 326 326 324 327 327 329 326 323 322 327 328 327 328 326 325 325 327 326 324 321 322 321 320 318 317 319 319 318 315 313 313 315 317 318 319 319 319 318 318
329 329 330 330 328 331 328 328 328 330 327 322 323 328 329 327 327 327 325 325 326 325 322 320 320 318 317 314 315 314 314 313 312 311 310 311 312 315 318 318 318 316 317
330 330 330 330 328 329 330 328 328 330 328 322 324 327 329 328 330 327 325 326 325 324 321 320 319 318 314 314 314 314 312 311 310 310 310 310 310 312 317 317 317 316 315
329 330 330 330 329 329 330 330 331 332 326 323 326 329 329 330 328 326 326 326 325 324 322 319 319 316 313 314 314 312 311 310 309 309 309 309 309 312 315 315 315 316 314
330 329 329 330 330 329 329 331 331 330 324 326 329 331 329 329 326 325 325 327 324 323 321 319 318 313 313 313 312 311 309 309 309 309 309 310 311 310 312 314 315 315 314
330 330 330 329 329 329 330 331 330 326 325 327 330 331 329 326 325 326 324 326 323 322 319 319 314 312 312 312 311 310 309 309 308 308 308 309 309 309 311 311 312 313 312
327 324 326 328 329 329 329 330 328 324 327 328 331 330 328 324 325 325 323 320 321 320 318 316 311 311 311 311 310 309 308 308 307 306 306 306 309 310 311 310 311 311 311
325 327 327 329 329 329 329 327 324 323 323 326 330 329 324 325 325 325 322 321 320 319 318 312 311 310 310 309 309 308 307 307 306 305 305 305 305 307 309 308 310 310 310
324 323 322 322 325 327 327 325 323 323 324 323 323 325 324 323 323 323 322 321 320 319 315 313 310 310 309 309 309 307 307 306 305 305 304 304 305 307 307 307 308 308 309
325 325 323 324 325 325 324 325 324 324 322 322 321 324 325 323 324 324 322 321 320 316 311 312 310 309 309 309 308 307 306 306 305 305 305 304 305 306 306 306 307 307 307
326 326 326 325 325 324 324 324 323 322 322 321 321 323 324 323 322 322 322 321 318 315 314 311 309 309 309 308 307 306 306 305 305 304 304 303 304 305 306 306 306 306 307
324 323 324 324 323 322 321 322 321 321 322 322 322 324 323 323 323 322 322 321 318 316 311 309 308 309 308 307 307 306 306 305 304 303 303 303 302 303 304 305 306 306 305
323 323 324 324 323 323 322 322 322 322 322 322 323 324 323 323 322 320 316 318 314 310 309 308 308 308 307 306 305 305 304 304 303 302 302 302 302 302 302 304 304 305 304
320 321 322 322 322 321 318 320 320 320 318 318 317 318 316 316 315 314 312 311 309 308 308 307 307 306 305 305 305 304 303 302 302 302 301 301 301 302 302 302 303 304 304
317 317 317 318 318 317 318 319 318 317 316 315 313 314 314 312 310 308 307 307 307 308 306 305 306 304 303 303 303 302 301 301 300 301 300 299 300 299 300 301 301 302 303

GFSMA_850_thetae_135.txt.gz
Theta_e
336 335 333 325 327 322 316 315 316 319 320 319 319 319 319 318 318 319 319 320 320 321 322 322 323 324 324 322 321 321 321 323 324 324 324 323 323 322 322 320 319 319 318
336 336 335 328 324 326 318 315 315 318 319 320 320 319 320 321 320 320 321 321 320 320 321 321 322 323 325 325 325 323 324 325 326 326 325 325 324 324 323 321 320 319 319
334 334 334 332 330 321 321 315 315 318 320 321 321 322 322 323 323 324 323 322 322 322 322 321 321 323 324 327 328 329 329 328 328 327 327 326 325 324 323 321 320 320 320
334 333 333 334 331 327 317 315 314 317 320 321 322 323 324 326 326 325 324 322 322 323 323 323 323 325 326 326 326 325 325 326 326 327 325 325 324 323 324 321 319 318 318
334 333 332 333 333 332 322 314 314 317 319 320 322 325 326 326 326 326 323 324 324 324 323 324 324 324 323 323 324 324 325 326 326 324 324 325 324 322 322 319 319 319 318
335 334 333 332 334 333 332 317 314 317 319 321 324 326 327 327 326 324 323 325 325 325 325 325 325 324 324 324 324 324 324 325 325 325 325 324 322 322 321 320 320 319 317
336 334 334 332 333 334 332 325 314 318 319 323 326 327 328 327 325 323 324 326 326 325 325 325 325 325 325 325 325 325 325 326 325 325 324 322 321 321 319 319 320 321 319
335 335 334 332 331 333 334 330 315 317 320 324 327 327 326 326 325 325 326 327 326 325 325 326 325 325 325 325 325 325 325 325 325 324 323 320 319 319 319 319 319 320 319
335 335 335 333 331 332 334 332 321 315 318 322 326 326 326 327 326 326 327 327 326 325 325 326 326 325 325 324 324 324 324 324 323 323 320 318 319 320 320 319 320 320 320
329 333 334 333 331 331 332 332 329 315 318 320 327 327 326 325 326 326 327 327 326 325 326 327 326 326 325 322 323 322 321 321 321 320 319 318 318 318 319 319 320 320 319
327 328 332 332 331 331 331 332 331 320 317 321 325 326 327 326 326 325 325 325 325 325 327 328 326 326 325 321 322 321 319 318 318 318 318 318 317 315 316 318 320 320 318
326 330 331 331 331 331 331 331 333 329 317 322 326 326 325 325 326 326 326 326 326 326 327 327 326 326 325 321 320 321 319 316 317 316 315 313 312 311 311 317 319 319 318
324 329 330 331 331 331 330 331 332 331 324 320 324 325 326 326 325 325 327 327 326 326 327 327 326 326 325 320 318 318 315 314 314 313 312 311 310 309 310 315 316 318 316
316 322 329 329 330 331 330 330 331 332 325 319 322 322 323 326 326 325 327 327 327 326 325 325 325 325 325 319 318 317 314 313 313 312 311 310 309 309 309 310 314 316 315
315 316 329 328 329 329 329 329 331 332 325 320 318 322 323 323 326 326 325 327 329 326 326 326 324 325 323 319 318 317 313 313 312 311 310 309 309 309 309 309 308 310 313
316 317 319 326 326 330 331 331 329 332 330 322 319 324 324 325 324 328 325 324 328 328 327 326 325 325 322 319 318 317 313 313 312 311 310 309 309 308 308 309 310 310 309
315 316 318 322 322 328 329 330 328 331 328 322 326 326 324 324 324 327 326 324 328 327 327 325 325 324 322 319 318 316 313 313 312 311 310 309 308 308 307 308 309 309 309
315 314 315 319 322 325 327 328 330 331 330 329 326 322 321 325 324 326 326 323 325 326 325 324 325 324 321 320 318 316 313 312 311 310 310 309 307 307 307 306 306 307 307
315 316 316 322 324 325 326 327 326 329 329 325 321 318 319 324 324 323 326 324 324 325 324 325 324 324 322 320 318 316 313 313 311 310 310 309 307 307 306 305 305 305 307
320 321 322 324 325 326 326 325 327 329 328 323 322 322 321 322 323 324 324 323 321 322 323 325 324 324 322 323 320 316 313 312 311 309 309 308 307 307 306 305 305 304 306
321 323 324 327 326 327 328 327 326 327 325 323 322 325 324 323 323 322 322 322 323 323 323 323 322 323 322 322 320 315 313 311 311 309 309 308 307 306 306 305 305 306 306
322 327 327 324 324 323 323 324 325 324 324 322 321 320 319 320 321 321 321 322 322 322 322 322 323 322 321 321 321 315 312 311 309 308 308 307 306 306 305 305 305 305 305
322 324 323 324 322 321 319 319 320 320 320 321 321 321 321 321 321 323 323 322 322 322 321 322 323 324 323 321 320 312 310 310 308 307 306 305 305 305 304 304 304 304 304
321 322 322 324 324 321 320 320 319 321 323 322 322 322 321 321 321 322 321 321 321 321 321 321 321 321 321 319 313 311 309 307 306 306 305 304 304 304 303 303 303 303 303
320 319 318 318 319 320 322 321 319 319 319 320 320 319 318 317 316 316 315 315 314 311 312 310 310 310 310 310 310 309 308 307 308 307 304 303 303 303 302 302 302 302 302
317 317 317 317 317 317 317 318 318 317 317 317 316 316 315 314 313 312 313 313 312 310 309 309 309 308 307 307 306 306 307 307 307 306 303 302 302 301 301 301 301 302 302

GFSMA_850_thetae_138.txt.gz
Theta_e
337 337 335 330 332 332 330 329 327 327 326 327 327 326 323 324 322 322 328 320 320 321 322 323 324 324 323 322 322 322 321 324 325 325 325 324 324 324 323 322 320 319 319
336 337 336 334 331 330 326 324 322 325 327 327 327 325 324 321 322 322 325 320 320 320 321 322 322 324 325 325 325 323 324 326 327 327 326 326 325 324 324 322 320 320 319
336 336 336 335 332 330 327 319 322 321 326 325 326 326 325 327 322 322 324 327 322 321 321 321 321 322 324 326 328 329 329 328 328 327 327 326 325 324 324 323 320 319 318
336 335 335 336 334 332 327 324 319 322 324 322 326 327 327 325 326 326 324 323 323 323 322 322 322 324 328 328 326 326 325 325 326 327 326 324 325 324 322 321 319 319 319
336 336 335 334 334 332 330 323 321 319 325 326 326 327 326 326 326 327 325 325 323 323 324 323 323 323 323 323 323 324 324 325 326 326 324 324 324 322 322 320 319 319 318
336 336 336 334 334 333 331 328 319 317 323 326 326 325 326 325 327 327 327 325 324 324 324 324 324 324 324 324 324 324 324 324 326 325 325 324 324 321 322 321 319 321 319
336 336 337 335 334 333 333 332 324 315 318 325 326 326 327 326 327 326 325 323 323 325 325 325 325 325 324 325 325 325 325 325 325 325 325 324 321 321 320 320 319 320 320
336 336 337 336 334 333 332 333 331 322 321 323 326 326 327 327 328 327 325 323 323 325 325 324 325 325 325 325 325 325 325 325 325 325 324 324 320 319 319 320 321 319 319
335 337 336 336 335 334 333 333 333 332 320 322 322 326 327 327 328 328 325 324 324 325 325 324 325 326 325 325 324 324 324 324 324 323 324 321 318 318 319 320 319 320 320
335 335 335 335 335 334 334 333 333 333 327 322 321 326 327 329 329 329 326 325 324 325 324 324 324 326 326 325 325 322 323 323 322 322 321 319 318 317 317 318 320 321 320
335 336 334 334 334 336 334 333 332 334 333 321 319 324 327 327 328 328 329 324 325 325 325 325 324 327 327 326 325 321 322 321 319 319 319 318 317 315 314 314 319 320 320
329 334 334 336 334 333 334 333 331 330 333 330 319 320 325 326 327 326 326 325 324 324 325 324 324 327 327 326 325 322 321 320 318 316 318 317 314 312 312 311 314 318 319
323 327 326 330 333 332 331 332 331 330 332 331 329 320 322 321 324 325 326 327 326 326 326 326 325 326 327 325 325 323 319 318 316 314 316 314 312 311 310 310 310 312 316
320 323 319 330 330 331 332 331 331 331 331 331 332 327 319 317 322 324 326 326 326 326 326 326 325 327 326 325 325 324 319 317 316 313 313 313 312 311 310 309 309 309 311
317 321 318 327 330 333 331 330 331 331 331 331 331 332 326 319 318 325 325 326 326 327 327 325 326 326 326 324 325 325 319 318 316 313 313 313 311 310 309 309 309 309 309
315 317 322 323 324 330 331 330 330 331 330 330 330 332 330 323 319 321 322 325 325 326 326 326 326 325 326 325 325 324 320 318 317 314 313 312 311 310 309 308 308 308 309
312 318 322 324 324 324 330 330 330 330 330 329 330 330 331 325 321 320 324 322 324 326 326 325 324 324 325 324 325 323 320 318 318 315 314 313 311 309 309 308 308 308 308
316 315 320 322 324 324 324 324 325 329 328 329 328 329 330 328 322 320 320 324 325 325 324 325 324 323 323 324 323 323 321 319 318 315 314 313 311 309 309 308 307 307 307
315 316 317 319 322 323 324 323 322 323 327 328 328 328 328 329 325 320 324 325 321 320 321 323 323 322 323 324 324 323 321 319 319 316 314 313 311 309 308 307 307 307 307
316 316 317 317 315 316 319 320 322 324 325 326 328 328 327 327 326 325 323 318 320 322 321 321 323 322 321 323 324 323 322 322 321 318 315 313 311 309 308 307 307 306 306
313 313 315 316 315 318 319 323 324 325 326 325 325 327 327 325 322 320 319 317 318 321 323 322 322 322 321 323 323 324 323 322 322 320 316 313 311 310 308 306 306 306 305
317 316 317 322 322 322 323 324 326 327 326 325 326 325 324 322 322 322 322 323 321 322 320 320 320 321 322 322 322 322 322 322 321 320 316 313 311 308 307 306 306 305 305
319 319 320 321 324 325 322 323 325 324 324 321 319 318 318 318 319 320 319 318 318 318 321 320 319 321 321 321 320 321 321 320 319 320 315 312 311 308 306 305 305 305 304
320 322 324 324 323 321 319 320 320 321 321 319 319 318 319 319 322 321 319 318 318 317 319 320 320 319 319 318 316 314 312 315 315 313 311 307 306 306 305 304 304 304 303
317 317 316 318 320 319 320 321 321 321 321 321 320 320 319 318 318 317 316 315 314 314 314 314 314 314 313 313 313 311 308 307 307 307 306 305 305 306 304 304 304 302 302
315 314 315 316 317 317 317 317 317 317 316 316 316 316 315 315 314 313 312 312 311 311 311 310 310 310 310 309 309 309 308 306 306 306 306 304 305 303 302 303 302 301 302

GFSMA_850_thetae_144.txt.gz
Theta_e
339 339 338 337 336 333 332 327 318 319 320 329 327 325 326 327 328 329 326 323 320 320 320 321 321 322 322 322 322 322 322 323 324 326 327 326 326 325 324 323 322 320 319
337 339 338 338 337 335 331 330 326 328 329 329 327 327 326 326 327 328 327 325 322 319 319 320 320 320 321 322 323 323 324 325 326 327 327 327 327 325 324 323 323 321 319
336 335 337 338 337 337 333 332 331 329 330 329 328 328 327 325 325 326 326 326 323 320 319 319 319 320 320 321 324 330 330 328 326 325 326 326 326 324 325 323 323 322 322
337 337 336 337 337 337 335 334 331 330 328 328 328 328 328 327 327 325 323 324 320 320 321 320 320 321 320 323 327 328 326 323 324 323 325 325 325 325 326 322 321 319 318
339 338 337 336 337 337 335 334 332 330 327 327 328 327 327 327 327 328 327 325 324 323 322 321 321 322 321 322 323 323 323 323 323 323 324 325 325 324 324 321 321 319 318
339 339 338 337 338 337 336 334 332 329 326 325 327 327 327 327 327 326 328 328 326 323 323 323 322 322 322 323 324 324 323 323 324 324 324 324 325 325 324 320 320 318 318
338 339 338 338 337 338 336 334 333 331 327 325 325 327 327 327 327 327 326 326 324 324 324 322 322 322 322 323 324 324 324 324 324 324 324 325 325 324 324 320 318 317 318
330 336 338 338 336 338 337 335 333 332 330 326 325 326 327 327 327 327 326 326 324 324 325 323 322 322 323 323 323 325 324 324 324 323 323 323 324 323 323 320 317 318 318
315 330 336 337 336 336 336 336 334 333 332 327 324 326 327 326 326 326 325 322 321 322 324 325 322 322 322 323 323 323 325 324 325 323 322 323 322 321 321 319 317 317 321
314 321 328 335 335 335 337 336 336 333 333 329 325 324 324 324 326 327 327 327 326 325 324 324 323 322 322 322 323 323 324 325 325 324 321 322 321 319 319 318 317 316 319
312 313 319 327 332 334 334 336 334 335 333 332 328 325 324 324 327 327 329 328 328 328 326 324 323 322 323 323 324 324 323 326 325 325 321 320 320 318 317 317 316 315 315
312 319 317 319 326 331 335 334 334 335 333 332 331 328 327 325 324 327 329 330 330 328 326 323 322 321 321 322 324 324 323 324 326 325 323 320 319 318 316 315 315 313 312
311 314 318 320 321 326 329 333 333 333 334 333 332 332 330 329 329 325 325 327 328 327 325 324 322 321 321 320 320 322 324 325 326 325 325 322 319 318 316 315 314 312 311
311 311 319 318 315 319 326 326 327 331 333 332 331 331 331 330 330 329 327 326 326 324 322 326 326 325 323 317 318 321 322 323 326 326 325 325 321 318 316 314 313 312 311
311 314 318 320 317 317 319 326 325 332 329 330 331 332 332 329 329 327 327 327 326 323 325 324 322 322 323 322 321 321 322 322 322 325 325 324 324 319 317 315 313 313 312
312 312 313 317 318 320 320 320 322 324 324 326 330 331 331 330 329 329 330 328 327 327 327 325 322 322 322 323 325 323 321 323 324 323 324 324 323 323 319 317 315 314 313
309 310 309 307 311 316 319 319 320 322 325 326 325 327 328 330 330 330 330 329 329 328 327 326 326 325 325 321 322 324 324 325 325 323 323 323 324 323 322 319 318 317 314
303 303 304 305 307 305 310 318 318 321 327 324 325 325 326 329 329 329 329 328 327 328 327 326 326 327 326 325 323 324 324 325 325 323 322 322 321 323 322 321 321 320 318
308 308 310 311 312 312 309 309 308 316 321 326 325 326 327 327 327 327 326 327 326 327 326 325 326 324 326 325 324 324 324 324 321 320 319 320 319 322 323 323 323 320 320
315 314 314 316 315 314 315 316 314 317 318 321 324 325 325 327 325 327 324 323 323 325 324 324 325 325 325 325 324 322 323 321 317 317 319 319 319 320 321 320 320 321 320
313 312 312 312 315 315 316 314 315 317 320 321 321 322 321 321 322 323 323 324 324 323 324 324 325 324 323 321 321 320 319 319 319 319 320 320 320 319 319 319 321 322 321
313 312 313 313 313 314 314 315 314 315 316 315 318 318 317 320 324 325 325 323 325 325 324 322 321 320 319 319 320 319 319 319 319 319 318 318 318 318 318 317 318 318 321
312 312 311 312 313 313 314 315 315 316 319 319 319 319 324 325 324 324 323 322 321 320 319 320 320 319 319 319 319 318 317 318 318 317 317 317 316 317 317 316 316 316 316
311 311 312 313 313 314 314 313 315 319 320 320 320 321 324 323 321 319 319 320 320 319 319 319 318 317 316 315 315 316 316 314 313 313 313 312 313 312 312 311 311 311 312
310 309 309 311 313 315 315 318 318 319 320 319 320 319 319 319 318 318 317 317 316 315 314 314 313 312 311 310 310 310 310 310 310 309 309 309 309 308 308 308 308 307 307
309 310 308 308 312 312 314 315 315 315 317 316 314 313 314 314 314 313 311 311 311 311 311 310 309 310 310 310 309 308 308 308 307 306 306 306 307 306 306 306 307 306 306

GFSMA_850_thetae_147.txt.gz
Theta_e
337 337 337 338 337 335 333 331 324 317 317 319 320 319 321 327 328 326 326 323 320 319 319 320 320 320 321 321 322 322 322 323 324 325 327 327 327 326 324 323 322 321 319
338 337 337 338 338 337 334 331 329 319 318 321 322 325 325 325 327 326 326 323 321 319 318 319 319 319 320 321 322 322 323 326 328 329 327 326 326 325 324 324 323 324 321
338 338 338 338 338 337 336 333 329 328 323 326 326 326 326 326 325 325 325 322 320 320 318 318 319 319 319 320 321 325 330 330 326 324 324 326 325 325 325 326 321 320 318
339 337 337 337 337 337 337 335 331 331 327 329 329 327 327 327 325 324 324 322 320 319 319 320 320 319 320 320 322 327 327 325 323 323 323 324 325 326 325 324 320 320 317
339 339 337 337 336 336 337 336 334 332 331 329 329 327 327 327 326 325 325 324 320 318 317 318 320 320 320 321 321 323 323 323 323 323 323 323 324 324 324 324 320 319 317
339 339 339 338 337 336 336 336 335 333 332 330 327 327 327 327 327 327 326 326 325 322 320 319 320 320 320 321 321 323 324 324 323 323 324 324 324 324 324 324 321 319 317
333 339 338 338 338 337 336 336 335 334 332 330 327 327 327 327 327 326 326 326 326 325 321 319 321 322 320 321 321 322 324 324 324 324 323 324 324 325 324 323 322 318 317
322 329 336 339 339 338 337 336 336 335 333 332 327 326 327 326 326 327 327 325 324 325 324 322 322 322 322 321 321 322 322 324 324 324 324 321 321 323 322 322 321 318 322
316 323 325 335 337 338 338 336 336 336 335 333 330 326 326 326 326 326 326 325 323 322 321 320 321 323 322 321 321 322 322 323 325 325 325 323 322 322 319 319 319 318 319
306 318 321 323 332 336 337 336 336 335 335 334 331 326 325 325 325 324 323 322 321 321 322 321 321 322 321 322 321 322 322 322 323 325 325 324 321 320 319 317 318 319 321
308 307 314 319 321 329 332 334 334 335 335 335 333 331 326 325 326 325 325 324 323 323 325 325 325 324 323 322 322 322 323 323 323 324 326 325 323 320 319 318 317 316 321
309 309 310 312 315 320 325 328 331 333 335 335 335 333 331 327 325 325 327 327 326 325 324 324 324 322 322 321 321 321 321 323 324 323 325 325 324 322 319 318 317 315 314
307 309 310 315 315 315 318 323 328 330 332 333 334 333 332 332 329 325 324 326 328 327 327 327 326 325 322 321 322 321 320 322 322 323 324 325 325 324 322 318 317 315 314
308 307 308 311 314 315 316 318 320 327 328 330 332 333 332 331 330 328 327 325 328 327 327 327 326 323 323 321 324 322 319 320 321 322 323 325 326 325 324 322 318 316 314
308 309 310 312 314 318 316 316 318 320 327 326 327 331 330 328 330 331 327 326 326 327 327 327 326 327 326 324 322 322 322 321 322 321 323 324 325 326 325 324 320 318 317
309 309 311 312 315 318 319 318 318 318 319 324 327 326 324 328 329 329 328 327 327 328 327 327 327 326 324 324 324 323 322 324 324 324 322 322 324 324 324 324 323 321 319
308 308 309 310 311 315 316 315 318 319 319 320 322 325 323 325 322 328 328 328 327 328 327 327 328 327 327 325 327 327 326 326 324 324 323 323 324 323 323 323 323 322 321
308 308 310 311 309 305 305 308 311 315 318 318 320 321 323 323 326 327 327 327 326 327 327 326 327 327 326 325 326 324 325 325 324 324 324 324 324 323 322 322 321 322 322
305 305 305 305 305 305 306 308 307 307 311 313 317 323 323 324 323 324 326 326 328 327 327 327 326 326 324 324 323 323 324 324 325 325 325 323 323 321 321 320 321 320 322
311 311 311 311 311 312 313 312 314 313 308 308 312 316 322 322 320 324 326 325 326 326 325 325 325 325 324 323 323 324 324 325 324 323 322 321 321 319 318 319 319 319 319
315 315 313 312 311 313 313 315 316 314 315 313 314 317 319 322 323 322 323 322 324 323 323 325 324 323 323 323 321 321 319 319 319 319 319 319 319 319 319 320 320 319 320
314 314 313 313 313 312 311 312 314 315 315 317 316 317 319 321 322 321 319 322 325 326 321 323 322 323 322 320 319 319 319 319 318 319 318 319 318 316 317 316 316 316 317
313 312 312 311 311 312 311 311 312 314 314 315 316 317 318 317 318 317 320 321 323 322 322 322 321 320 319 318 318 318 317 316 316 315 315 315 315 315 314 314 314 313 313
312 311 311 311 312 312 312 313 312 313 313 313 314 317 317 318 318 319 321 320 319 319 319 319 317 316 315 314 314 314 313 312 312 312 311 309 311 311 310 309 309 309 309
310 309 309 309 310 314 313 315 316 316 316 318 317 318 319 317 318 318 317 317 315 314 314 313 313 312 311 310 310 310 309 309 309 309 308 307 307 307 307 307 307 308 307
306 306 306 308 310 311 312 312 314 313 314 315 315 313 314 313 315 315 313 313 312 312 310 309 307 307 307 306 306 306 305 305 304 304 304 304 304 303 303 303 304 305 303

GFSMA_850_thetae_150.txt.gz
Theta_e
338 337 336 335 328 329 332 333 331 322 316 317 318 315 321 325 325 325 325 325 321 319 319 319 319 320 320 321 321 321 322 322 323 325 327 328 327 326 324 324 322 322 319
339 339 337 336 336 337 336 335 332 330 320 317 319 318 317 324 326 325 325 324 323 322 319 318 319 319 319 320 321 322 322 324 329 328 326 325 325 326 324 325 324 322 318
339 339 338 337 336 337 338 337 335 332 327 318 318 322 322 323 324 324 324 323 322 321 320 318 317 318 319 319 319 320 325 330 329 326 324 323 325 326 326 325 325 320 318
340 339 339 338 337 337 337 338 337 334 329 324 320 322 323 325 326 325 324 323 321 320 320 319 319 319 319 319 320 321 327 325 323 322 322 323 323 324 325 324 323 320 319
338 339 339 339 338 336 337 338 337 336 331 330 326 327 327 326 326 327 326 323 321 320 319 318 318 320 320 320 320 321 322 323 323 322 323 323 323 323 324 324 324 321 319
333 336 338 338 338 337 336 336 338 336 334 333 331 328 329 328 327 327 327 325 323 322 320 319 319 319 321 320 321 321 322 323 324 323 323 323 323 324 324 324 323 322 318
320 329 333 336 337 339 337 336 336 337 336 334 332 330 329 328 327 327 327 326 325 323 322 321 321 319 319 322 321 321 322 323 324 324 324 324 323 323 323 324 323 322 318
309 315 324 331 334 335 337 337 336 336 336 335 332 330 329 327 326 327 326 326 325 324 323 321 320 319 319 322 322 321 321 322 322 324 324 324 324 323 323 322 321 321 319
306 308 313 322 328 334 335 334 337 336 336 335 333 331 327 326 326 326 325 323 323 324 323 322 321 319 319 320 323 322 321 321 322 322 324 325 325 327 326 325 319 320 323
307 306 307 314 322 326 329 333 333 337 337 336 335 332 331 329 326 325 325 325 324 323 322 321 321 320 321 320 320 321 322 321 322 323 323 325 325 324 325 326 325 323 322
307 307 306 306 314 320 325 326 334 335 335 335 334 333 328 330 327 326 325 325 324 324 323 321 320 322 322 323 322 322 323 323 323 324 323 323 325 325 324 327 326 325 323
309 307 308 308 307 310 319 323 324 327 333 332 332 334 333 329 330 326 326 326 326 325 325 324 323 322 323 323 323 322 321 322 323 324 324 324 324 326 325 326 327 326 324
309 309 307 309 309 309 308 312 318 323 325 327 329 331 332 332 332 332 330 326 326 326 326 326 325 325 323 324 322 323 322 322 322 321 322 323 324 327 325 325 324 323 319
309 310 307 307 310 310 313 315 314 316 317 321 324 328 328 331 330 329 330 330 326 326 326 326 327 326 326 326 325 323 323 320 323 320 320 322 323 323 324 325 325 324 322
310 310 308 308 307 308 310 312 314 314 315 317 320 322 328 327 327 324 328 326 326 327 327 327 327 327 327 328 326 325 324 322 318 317 323 324 322 323 324 324 325 325 324
310 310 308 308 309 310 311 312 316 317 316 316 317 318 320 325 326 325 326 326 327 326 327 327 326 327 327 327 326 324 324 323 320 324 323 324 324 324 324 324 324 323 324
310 309 308 309 310 311 313 315 316 317 318 318 318 318 318 320 324 325 324 325 326 327 326 327 326 326 327 326 325 325 326 325 325 325 326 326 325 324 324 324 324 323 323
308 308 308 309 309 310 311 311 311 311 310 312 313 316 317 319 321 323 324 324 323 325 324 324 327 326 327 326 324 325 326 325 324 323 323 323 325 324 324 325 324 323 322
308 307 308 308 308 310 311 310 306 305 306 307 307 311 311 312 318 321 323 324 324 325 325 326 325 326 326 326 325 325 323 322 322 323 323 323 324 325 325 323 324 322 321
312 310 308 308 307 307 306 306 308 309 310 311 311 309 310 310 310 320 324 324 322 325 325 326 325 326 325 323 323 324 321 320 321 323 323 322 322 321 320 320 321 319 319
314 314 313 313 311 310 310 310 312 313 312 313 313 314 312 310 312 317 321 322 322 322 323 324 324 322 323 323 324 319 321 321 321 320 320 319 319 319 319 319 318 317 318
314 314 314 311 311 312 311 311 311 310 313 312 314 315 316 315 316 317 319 322 323 321 319 320 322 321 320 322 321 320 319 319 318 319 319 319 317 317 317 316 315 313 315
313 313 312 312 312 312 311 311 311 312 312 313 313 314 315 316 318 318 319 319 317 319 319 319 320 320 320 319 318 318 317 316 316 315 315 314 314 314 313 313 313 312 311
312 312 311 311 311 311 311 311 312 312 312 313 314 314 314 315 316 316 316 316 317 316 318 318 319 316 317 315 314 314 313 312 311 311 310 308 308 309 309 309 309 308 308
309 309 309 309 309 311 313 313 314 314 313 313 313 312 315 316 314 317 316 317 317 315 313 313 313 312 312 311 311 311 309 309 308 308 307 305 304 303 304 303 303 304 304
307 307 307 308 309 309 311 312 312 312 314 314 314 313 314 314 314 315 314 313 312 309 309 310 309 309 307 306 306 305 304 303 302 301 301 300 300 298 298 298 300 300 300

GFSMA_850_thetae_153.txt.gz
Theta_e
338 338 337 334 335 330 327 332 332 330 319 316 317 316 316 319 319 321 323 323 323 322 320 319 319 320 320 320 320 321 321 322 323 327 327 326 324 325 325 324 323 321 319
339 339 338 338 336 335 329 328 332 332 330 320 317 318 316 318 321 320 321 323 323 323 322 319 318 319 319 320 320 321 322 322 326 330 327 326 325 325 325 325 326 322 318
337 337 338 339 338 336 336 335 336 336 333 329 321 317 319 316 320 320 320 323 322 322 322 321 320 318 318 319 319 319 320 325 330 328 326 323 323 323 325 326 325 323 319
334 337 336 337 338 337 336 336 337 336 336 333 328 320 318 321 320 321 321 322 322 321 321 320 320 319 319 319 319 320 321 329 328 326 323 322 323 323 323 324 324 323 320
325 331 335 336 337 338 338 336 336 336 336 336 332 327 321 320 323 324 324 323 323 322 320 320 320 319 318 320 320 321 321 323 323 326 323 323 323 323 323 323 324 323 322
310 322 329 334 335 336 338 337 336 336 335 336 335 330 330 325 326 325 324 324 325 323 322 320 321 320 319 319 321 321 321 321 322 323 324 323 323 323 323 323 323 323 322
306 308 316 327 333 335 335 336 337 337 336 336 336 332 332 331 328 328 327 325 325 324 323 322 322 321 320 320 320 322 321 321 322 322 324 324 324 324 323 323 324 323 322
308 306 307 312 323 330 336 333 335 337 337 336 336 334 332 332 331 330 328 327 324 324 323 322 322 322 321 320 319 320 322 322 321 322 322 323 325 326 327 326 325 325 322
309 308 307 306 310 317 328 332 333 333 335 336 335 335 330 329 331 331 331 328 326 324 323 322 321 321 321 321 320 320 321 322 322 322 323 323 323 326 327 327 325 326 323
309 309 308 307 306 308 315 326 328 334 332 332 335 333 334 330 331 329 329 330 328 326 325 324 322 322 321 320 320 320 321 322 323 323 323 323 323 324 327 327 327 326 324
309 309 309 307 307 306 308 314 324 326 329 331 332 332 332 332 329 329 328 327 328 329 327 325 324 324 323 323 320 321 322 322 323 324 324 323 324 325 329 327 327 327 326
310 309 309 309 307 307 306 307 313 321 325 326 331 331 329 331 331 329 329 330 329 328 329 328 327 326 325 323 322 323 324 325 325 324 324 324 324 324 324 327 328 327 327
311 310 309 309 308 307 309 307 307 310 317 320 322 324 326 328 330 329 329 328 328 329 328 327 328 328 326 326 325 324 325 324 324 324 323 323 323 323 326 325 327 327 327
310 310 310 309 309 307 309 310 311 311 310 311 316 317 320 322 326 328 328 327 327 327 328 327 328 327 327 327 325 326 325 324 323 320 320 322 322 322 324 324 324 325 325
310 310 309 309 309 308 307 309 311 312 314 315 316 316 317 319 320 322 327 326 327 327 326 326 327 327 327 327 327 326 326 325 326 326 325 322 319 318 320 323 322 323 323
311 311 310 310 309 307 308 308 309 308 311 314 315 315 314 315 318 319 321 323 326 326 324 325 326 325 326 327 327 327 327 327 326 320 320 321 321 323 324 324 324 323 324
309 310 310 310 308 308 310 309 312 314 315 316 316 317 317 317 317 318 319 320 322 324 325 323 322 323 326 326 326 326 327 325 324 321 323 320 321 326 325 324 325 324 324
308 308 309 309 308 308 309 310 311 312 312 313 313 312 312 313 315 316 318 321 324 323 324 324 324 324 325 325 324 326 326 326 325 322 324 325 325 323 323 324 324 324 324
312 309 307 308 308 308 309 310 310 311 310 310 307 305 305 307 309 311 311 312 320 324 323 326 323 325 324 325 325 325 327 323 323 323 323 322 321 320 322 323 323 323 324
314 312 309 307 306 306 306 306 306 306 305 305 306 308 310 311 308 308 311 312 315 320 322 322 324 323 324 326 324 326 324 323 324 322 319 320 321 322 322 322 321 322 321
314 314 314 313 313 313 312 310 310 309 309 310 312 311 310 311 313 313 310 307 315 317 320 321 323 322 323 324 319 319 321 320 319 320 321 320 319 319 319 319 319 319 319
313 313 313 313 313 310 311 311 312 311 311 310 310 311 311 312 314 315 313 315 316 318 320 320 319 322 322 321 320 319 319 319 321 318 320 319 318 318 318 317 316 317 316
312 312 312 312 311 311 311 311 311 311 311 311 311 311 312 313 314 315 316 318 318 319 319 317 317 319 321 319 317 317 318 319 319 316 317 317 317 317 316 314 312 311 311
310 311 311 311 311 311 311 310 310 311 312 312 311 311 313 314 315 315 316 318 318 317 316 315 316 318 318 319 319 317 315 313 312 313 312 311 312 311 311 311 309 309 308
309 309 308 308 309 309 310 312 312 312 312 312 312 311 312 312 313 314 314 314 314 314 313 314 314 313 313 312 311 309 309 310 310 308 307 305 305 304 303 301 299 300 301
308 306 307 307 307 308 309 310 309 310 310 311 311 310 311 310 311 311 311 312 312 311 309 308 308 306 306 306 306 307 306 304 303 300 299 297 297 296 295 295 295 297 297

GFSMA_850_thetae_156.txt.gz
Theta_e
337 338 338 337 335 334 335 328 330 332 330 320 316 316 316 315 318 319 321 323 323 322 321 319 319 319 319 320 320 320 321 321 322 325 328 326 325 325 325 324 324 323 320
337 336 337 338 338 337 335 335 329 329 333 331 322 317 317 316 316 318 320 321 323 323 322 322 321 319 318 318 319 319 320 321 322 327 329 327 325 324 324 325 325 325 322
333 336 335 335 336 338 338 337 336 332 331 333 331 325 317 317 316 316 318 320 322 323 323 323 322 321 320 318 318 319 320 320 325 330 328 326 325 325 323 324 326 325 323
316 329 334 336 336 336 335 338 337 336 335 335 335 331 328 319 319 317 317 318 320 322 322 322 322 322 321 320 320 319 322 328 327 329 327 326 326 323 322 323 323 324 323
307 310 320 330 334 336 336 335 336 337 336 336 336 335 333 328 322 320 321 320 320 321 321 321 321 321 321 320 319 321 320 322 327 327 327 327 324 323 323 323 323 324 323
308 307 308 312 325 331 334 336 336 335 336 336 335 335 335 333 330 324 320 323 323 323 323 323 322 321 321 321 320 320 321 321 321 322 322 324 325 326 323 323 323 323 323
309 308 308 306 309 321 328 334 337 335 335 334 336 336 335 335 333 332 329 325 325 324 324 324 323 323 321 321 321 321 320 322 322 321 322 322 323 326 325 324 323 322 323
309 309 309 308 307 307 315 328 330 338 332 334 334 335 333 335 335 334 333 332 330 327 325 324 325 325 323 322 321 321 321 320 322 323 322 322 325 326 326 326 326 325 323
310 310 309 309 308 307 306 310 326 328 334 330 333 334 332 332 333 333 333 332 333 332 330 328 325 324 324 323 322 323 322 321 320 323 324 323 323 325 324 327 328 328 326
311 311 310 309 309 308 307 306 309 322 328 330 333 331 333 333 332 331 331 331 331 332 331 330 328 326 325 324 323 323 323 322 322 322 323 324 324 324 325 326 327 327 327
311 312 311 309 309 309 307 306 306 308 318 327 328 330 330 330 330 331 329 329 328 328 329 327 328 330 328 325 324 324 324 323 323 323 324 324 324 325 326 326 327 327 328
310 310 311 309 309 309 309 307 307 306 308 316 324 326 326 328 330 327 329 328 329 328 329 329 328 328 329 329 328 325 324 324 324 325 325 326 324 324 325 326 326 325 326
309 309 311 310 310 309 309 308 308 309 307 307 312 321 325 325 325 326 327 327 328 327 326 328 328 327 328 329 328 328 326 324 324 326 326 325 324 322 323 325 325 324 324
309 309 310 310 310 309 309 309 307 309 311 310 309 310 313 319 320 321 321 323 325 325 326 327 327 329 328 327 328 327 326 327 326 325 325 324 321 321 322 321 323 321 322
310 310 309 310 309 309 309 309 307 308 310 311 313 314 314 314 314 315 316 318 320 322 325 324 324 325 325 324 326 327 327 327 327 327 326 324 321 326 322 323 319 322 323
310 310 311 310 310 309 309 308 307 307 309 310 310 312 313 313 314 314 314 316 319 322 323 322 324 324 323 324 325 324 325 326 327 327 327 326 326 324 325 321 321 323 324
308 308 310 310 310 310 308 308 308 307 310 310 310 311 312 315 315 316 316 316 317 322 322 322 323 321 323 324 322 323 323 325 326 324 326 326 321 322 323 322 322 323 321
311 308 308 309 309 309 308 308 310 311 312 313 313 313 313 312 312 313 314 315 316 317 318 319 321 324 325 323 324 323 324 326 324 325 326 325 323 324 322 322 322 322 323
314 312 309 307 308 308 308 308 309 310 310 311 310 310 309 308 307 306 306 309 312 312 313 314 319 319 321 323 324 324 323 324 324 325 326 324 323 320 319 321 322 321 321
315 314 313 310 308 307 307 307 307 307 307 306 306 305 305 305 306 308 309 309 307 311 311 312 316 318 319 319 320 323 322 324 323 325 322 323 323 321 319 318 319 321 321
314 313 314 314 314 313 313 312 311 310 310 309 309 309 310 312 312 313 313 311 312 311 312 312 313 317 318 320 320 321 323 324 324 321 321 321 318 319 320 320 319 319 319
312 312 312 312 312 312 312 312 312 311 311 311 311 311 310 310 312 312 312 314 315 315 313 316 318 318 321 319 320 322 321 319 320 319 318 320 319 319 319 318 318 316 316
310 311 311 311 311 311 311 311 311 311 311 311 311 311 311 311 311 312 313 313 314 315 316 316 317 318 318 318 317 318 318 318 317 317 317 317 319 317 314 313 314 313 313
309 309 309 309 309 309 309 310 311 311 311 311 311 311 311 312 312 312 312 312 312 313 314 315 315 315 316 316 318 317 316 313 312 312 311 310 311 310 309 309 310 310 308
308 308 308 308 307 307 308 310 310 309 310 309 310 309 309 309 309 309 310 311 311 311 311 312 311 311 312 312 311 308 307 308 306 306 307 305 307 308 306 303 300 298 299
304 304 304 305 306 307 308 308 309 309 308 308 307 307 307 306 306 307 307 306 305 305 304 304 303 304 304 303 303 303 302 303 302 300 301 299 297 296 295 295 294 294 295

GFSMA_850_thetae_159.txt.gz
Theta_e
337 337 336 337 337 337 334 333 333 328 332 332 327 317 316 316 316 317 319 323 324 324 324 322 321 319 319 319 319 320 320 320 321 322 326 329 326 324 324 324 324 325 325
332 334 337 337 336 336 337 337 335 335 331 330 332 329 318 317 316 316 317 320 322 324 324 324 323 323 320 318 319 319 319 320 321 322 328 328 326 326 324 325 326 326 325
318 326 332 336 335 335 335 336 337 337 336 334 329 332 331 323 317 316 316 317 321 323 324 324 324 323 322 322 321 321 324 326 323 326 330 330 327 326 325 322 323 326 325
308 310 314 326 333 336 335 335 335 335 336 336 335 333 334 332 327 319 317 316 317 320 322 323 323 323 323 322 321 321 326 327 329 327 329 329 327 326 326 324 322 323 324
308 308 307 309 314 327 334 336 336 336 335 335 336 336 335 335 333 330 322 318 318 317 318 322 323 323 323 323 321 320 319 321 323 327 328 328 327 327 326 325 323 323 324
309 309 308 308 307 308 317 330 333 335 335 335 335 335 335 335 335 334 331 325 324 319 320 321 322 323 324 323 322 322 320 318 320 322 324 325 326 326 327 327 324 323 323
309 309 309 309 308 308 307 310 324 330 332 335 334 335 335 335 333 334 334 330 329 329 322 322 322 322 323 324 324 323 322 321 319 321 322 321 322 324 326 327 326 324 322
309 309 309 309 309 309 308 306 307 322 329 331 333 332 332 333 332 332 333 333 333 332 332 332 327 325 323 323 323 324 324 323 322 321 321 323 322 322 323 325 325 326 327
309 309 309 309 310 309 309 308 306 307 319 327 328 330 331 331 331 332 332 332 333 334 333 332 332 331 328 326 324 324 324 324 324 323 322 322 323 323 323 324 325 327 328
309 309 310 310 310 310 309 309 308 306 307 317 327 328 328 330 331 330 330 331 331 331 331 331 331 332 331 329 328 327 326 326 325 325 324 324 323 323 323 324 324 326 326
310 310 310 310 310 311 310 309 309 308 306 307 318 326 328 327 329 329 329 329 329 329 329 329 328 328 329 331 330 328 327 325 325 325 326 325 324 324 324 324 325 326 327
310 310 310 310 310 311 310 309 309 308 307 306 307 317 326 327 327 329 329 328 328 327 326 327 327 328 328 329 327 329 329 328 325 324 325 326 324 324 324 324 325 326 327
309 309 308 309 310 310 309 309 309 309 308 307 307 307 312 319 324 326 326 326 326 327 325 326 326 326 325 327 328 327 327 327 327 326 324 325 325 325 325 324 323 324 325
308 309 309 308 309 310 310 309 309 308 309 307 308 307 307 312 312 316 320 323 323 323 323 322 322 323 325 324 326 328 328 328 327 328 327 325 325 325 325 324 323 323 322
309 309 309 309 309 309 309 310 309 308 309 307 308 310 311 310 309 309 311 313 316 320 319 319 319 319 319 323 324 325 324 324 326 327 327 327 326 325 323 321 321 323 323
310 308 308 309 310 310 309 309 309 309 308 307 309 310 311 312 313 313 313 313 314 315 318 319 319 320 320 320 322 324 323 325 326 325 325 326 325 326 326 326 325 321 325
312 310 307 309 310 309 310 309 308 308 309 308 308 308 308 309 311 313 314 315 315 315 316 318 317 316 317 317 319 320 323 325 323 323 323 326 325 324 325 327 326 324 324
314 313 310 307 308 309 309 308 308 309 311 311 314 314 314 314 314 314 314 314 314 314 314 315 315 315 315 316 317 321 321 323 324 324 323 324 326 325 326 326 322 322 323
314 314 313 309 307 308 308 308 308 309 310 311 311 311 311 310 310 309 308 307 307 307 307 312 313 313 312 312 316 317 320 320 322 323 324 324 324 324 326 324 322 324 321
314 314 314 313 311 309 308 308 308 308 308 308 307 307 307 307 307 307 308 309 310 312 312 313 310 310 312 312 313 315 317 318 318 321 321 323 324 325 325 324 323 321 320
312 312 312 312 313 313 313 312 312 311 311 311 310 310 310 310 310 311 313 313 313 313 313 315 316 315 314 314 314 316 318 318 318 320 321 321 322 323 323 323 321 319 319
311 311 311 311 311 311 311 311 311 311 311 310 310 310 310 311 311 311 311 312 312 312 312 315 313 314 314 311 315 317 318 318 319 318 319 319 318 319 320 319 318 318 318
310 310 310 309 310 310 311 311 311 311 311 311 310 310 311 311 311 311 311 310 311 311 311 312 312 312 311 313 315 315 314 316 314 315 315 314 313 313 313 314 312 315 316
307 308 307 307 307 308 309 310 310 310 309 309 308 309 310 310 310 309 309 309 309 310 311 311 308 309 309 310 311 311 311 308 308 308 308 309 307 306 306 305 304 304 308
303 303 303 304 306 307 308 309 308 307 308 309 309 309 308 308 309 310 309 309 308 307 307 307 306 304 302 305 305 304 305 305 304 305 305 304 304 304 303 303 303 301 300
300 300 300 300 299 300 303 305 307 308 308 308 307 306 306 307 306 305 305 305 305 304 304 303 303 303 304 302 301 303 303 303 301 297 298 297 298 297 296 295 295 295 295

GFSMA_850_thetae_162.txt.gz
Theta_e
337 337 337 337 337 337 337 336 335 335 333 332 333 332 326 320 321 325 325 320 322 322 323 323 329 328 320 319 319 319 320 320 320 321 322 326 328 326 324 323 324 324 325
323 330 335 336 337 336 336 337 337 337 334 334 332 335 332 328 319 318 323 324 318 321 323 323 324 328 329 327 320 319 319 319 320 320 322 326 329 327 326 325 325 326 326
310 312 318 327 332 336 336 336 336 336 337 337 335 334 335 334 330 323 317 317 321 318 320 322 323 323 324 328 328 329 328 326 326 325 324 329 330 329 327 325 323 322 325
308 308 308 311 317 326 336 337 335 335 336 336 335 336 336 334 333 331 327 320 318 319 318 320 320 322 323 323 326 328 330 328 329 329 327 328 329 329 327 326 326 323 322
309 309 308 308 308 309 314 326 334 336 335 335 336 335 335 335 335 334 334 330 325 319 319 322 319 320 322 323 323 324 326 327 326 327 326 327 328 328 327 326 326 324 322
309 309 309 309 309 308 308 312 322 329 333 334 333 334 335 334 335 334 335 335 334 329 323 320 322 319 320 321 322 323 323 322 324 323 324 323 325 326 326 326 326 326 323
309 309 309 309 309 309 309 311 313 320 327 329 332 333 333 334 332 334 333 331 328 332 332 326 322 324 326 321 322 323 324 322 322 321 321 321 323 322 322 323 324 326 325
309 309 309 309 309 309 309 310 311 313 316 323 327 332 332 332 332 330 331 332 327 328 327 332 329 324 326 327 325 324 324 325 324 324 323 322 321 322 324 322 323 324 325
310 308 308 309 309 309 309 310 311 312 314 317 323 327 330 330 331 331 331 331 332 330 328 330 333 331 332 332 330 329 327 325 326 326 326 325 324 322 322 324 323 324 325
308 309 309 309 309 309 310 310 310 310 312 314 316 323 325 329 329 329 329 329 331 332 332 332 331 332 332 331 331 331 331 328 327 326 326 326 325 325 324 322 323 323 325
309 310 310 311 311 311 311 311 311 311 312 314 316 318 322 324 325 328 327 328 329 329 330 330 330 329 328 328 328 330 330 329 327 326 326 326 325 325 325 324 322 324 324
310 310 310 310 309 309 310 311 311 311 312 313 314 315 317 321 325 324 325 326 326 328 330 329 328 328 327 328 328 328 328 328 328 327 325 325 324 324 326 325 324 324 324
309 309 308 308 308 308 309 310 311 311 311 311 312 313 314 316 319 322 324 325 326 327 327 327 327 327 326 325 326 326 325 327 327 327 327 327 326 325 324 325 325 325 325
309 310 309 309 309 309 309 310 310 310 310 309 309 312 314 315 315 316 318 321 323 323 324 325 325 326 326 324 319 320 323 325 328 328 328 327 327 327 326 325 324 325 325
312 311 309 308 309 309 309 309 310 311 311 311 312 314 314 316 317 317 318 318 319 320 319 318 318 320 322 323 319 318 320 321 324 326 324 326 327 327 327 327 326 325 324
312 312 310 308 309 309 309 310 309 310 309 311 312 314 314 316 317 317 318 318 319 319 319 318 318 319 320 320 319 318 318 320 322 323 324 326 327 327 327 326 326 325 325
313 313 312 308 308 309 310 310 310 308 308 308 309 312 312 313 315 315 317 317 318 318 317 317 318 318 319 319 319 320 319 319 318 317 322 326 325 324 324 326 326 326 326
314 313 313 310 307 308 309 309 309 309 311 313 313 314 315 315 315 316 316 316 317 317 316 317 316 315 315 315 315 314 313 316 317 318 320 321 322 323 324 324 325 325 326
314 313 314 313 309 307 308 308 308 308 310 311 312 312 312 312 311 311 311 312 313 313 313 313 313 314 314 314 314 314 312 310 313 315 316 318 320 322 323 324 324 326 326
312 313 312 312 313 312 310 307 307 308 308 308 308 308 308 308 307 307 308 310 312 313 314 314 315 315 314 313 314 313 312 310 312 315 317 317 318 319 320 321 323 324 325
312 312 311 312 312 312 312 312 312 311 311 311 311 311 310 310 310 311 311 311 311 312 313 314 314 313 312 312 312 314 312 311 313 317 317 320 318 318 318 320 320 320 320
311 311 310 310 311 311 311 311 310 310 310 310 310 310 310 310 310 311 311 311 311 311 310 310 311 311 311 312 312 312 311 311 313 314 315 313 314 313 313 313 315 314 315
308 308 308 308 308 309 310 311 311 310 310 310 310 310 310 309 309 309 309 309 309 309 309 310 311 310 310 309 308 309 309 308 308 309 311 310 308 311 311 306 309 310 309
303 303 304 306 307 307 307 310 309 308 307 307 308 308 309 309 309 309 308 308 308 308 308 309 308 308 307 307 306 306 305 304 306 306 306 306 305 304 304 304 303 305 304
301 301 301 300 301 302 305 307 307 307 307 308 308 308 307 307 307 306 306 306 306 306 306 306 305 303 303 304 304 304 302 303 303 304 304 304 304 303 303 302 301 302 302
298 298 299 299 298 298 297 298 301 303 303 302 301 299 298 298 296 296 299 303 304 303 303 303 302 300 297 294 293 293 293 293 293 294 296 294 295 294 295 295 295 295 295